<?xml version="1.0" encoding="UTF-8" standalone="no" ?>
<gpx xmlns="http://www.topografix.com/GPX/1/1" xmlns:xsi="http://www.w3.org/2001/XMLSchema-instance" xsi:schemaLocation="http://www.topografix.com/GPX/1/1 http://www.topografix.com/GPX/1/1/gpx.xsd" version="1.1" creator="VisuGPX - https://www.visugpx.com">
  <metadata>
    <name>262011</name>
    <desc><![CDATA[Retour sur mon circuit]]></desc>
  </metadata>
  <trk>
    <name><![CDATA[ACTIVE LOG093635]]></name>
    <trkseg>
      <trkpt lat="46.82216" lon="-2.13061">
        <ele>7.211</ele>
        <time>2011-08-15T07:36:35Z</time>
      </trkpt>
      <trkpt lat="46.82216" lon="-2.13061">
        <ele>7.211</ele>
        <time>2011-08-15T07:36:42Z</time>
      </trkpt>
      <trkpt lat="46.82216" lon="-2.13061">
        <ele>4.209</ele>
        <time>2011-08-15T07:40:13Z</time>
      </trkpt>
    </trkseg>
  </trk>
  <trk>
    <name><![CDATA[ACTIVE LOG094203]]></name>
    <trkseg>
      <trkpt lat="48.38218" lon="-4.50656">
        <ele>4.793</ele>
        <time>2011-08-15T07:42:03Z</time>
      </trkpt>
      <trkpt lat="48.38229" lon="-4.50653">
        <ele>4.838</ele>
        <time>2011-08-15T07:42:29Z</time>
      </trkpt>
      <trkpt lat="48.38216" lon="-4.50654">
        <ele>10.738</ele>
        <time>2011-08-15T07:43:17Z</time>
      </trkpt>
      <trkpt lat="48.38216" lon="-4.50654">
        <ele>16.439</ele>
        <time>2011-08-15T07:43:19Z</time>
      </trkpt>
      <trkpt lat="48.38216" lon="-4.50654">
        <ele>21.616</ele>
        <time>2011-08-15T07:43:21Z</time>
      </trkpt>
      <trkpt lat="48.38216" lon="-4.50654">
        <ele>26.444</ele>
        <time>2011-08-15T07:43:23Z</time>
      </trkpt>
      <trkpt lat="48.38218" lon="-4.50653">
        <ele>31.278</ele>
        <time>2011-08-15T07:43:25Z</time>
      </trkpt>
      <trkpt lat="48.3822" lon="-4.50653">
        <ele>35.53</ele>
        <time>2011-08-15T07:43:27Z</time>
      </trkpt>
      <trkpt lat="48.38222" lon="-4.50653">
        <ele>39.651</ele>
        <time>2011-08-15T07:43:29Z</time>
      </trkpt>
      <trkpt lat="48.38223" lon="-4.50654">
        <ele>43.134</ele>
        <time>2011-08-15T07:43:31Z</time>
      </trkpt>
      <trkpt lat="48.38223" lon="-4.50654">
        <ele>46.393</ele>
        <time>2011-08-15T07:43:33Z</time>
      </trkpt>
      <trkpt lat="48.38222" lon="-4.50654">
        <ele>49.703</ele>
        <time>2011-08-15T07:43:35Z</time>
      </trkpt>
      <trkpt lat="48.38222" lon="-4.50655">
        <ele>54.047</ele>
        <time>2011-08-15T07:43:38Z</time>
      </trkpt>
      <trkpt lat="48.38223" lon="-4.50655">
        <ele>57.813</ele>
        <time>2011-08-15T07:43:41Z</time>
      </trkpt>
      <trkpt lat="48.38223" lon="-4.50655">
        <ele>61.257</ele>
        <time>2011-08-15T07:43:44Z</time>
      </trkpt>
      <trkpt lat="48.38223" lon="-4.50655">
        <ele>64.507</ele>
        <time>2011-08-15T07:43:47Z</time>
      </trkpt>
      <trkpt lat="48.38223" lon="-4.50655">
        <ele>67.622</ele>
        <time>2011-08-15T07:43:50Z</time>
      </trkpt>
      <trkpt lat="48.38222" lon="-4.50654">
        <ele>69.83</ele>
        <time>2011-08-15T07:43:53Z</time>
      </trkpt>
      <trkpt lat="48.38224" lon="-4.50654">
        <ele>72.432</ele>
        <time>2011-08-15T07:43:56Z</time>
      </trkpt>
      <trkpt lat="48.38224" lon="-4.50653">
        <ele>75.765</ele>
        <time>2011-08-15T07:44:01Z</time>
      </trkpt>
      <trkpt lat="48.38225" lon="-4.50653">
        <ele>78.978</ele>
        <time>2011-08-15T07:44:06Z</time>
      </trkpt>
      <trkpt lat="48.38224" lon="-4.50653">
        <ele>82.119</ele>
        <time>2011-08-15T07:44:12Z</time>
      </trkpt>
      <trkpt lat="48.38225" lon="-4.50652">
        <ele>84.075</ele>
        <time>2011-08-15T07:44:17Z</time>
      </trkpt>
      <trkpt lat="48.38222" lon="-4.50648">
        <ele>87.031</ele>
        <time>2011-08-15T07:44:28Z</time>
      </trkpt>
      <trkpt lat="48.3822" lon="-4.50648">
        <ele>90.099</ele>
        <time>2011-08-15T07:44:37Z</time>
      </trkpt>
      <trkpt lat="48.38219" lon="-4.50645">
        <ele>91.603</ele>
        <time>2011-08-15T07:44:45Z</time>
      </trkpt>
      <trkpt lat="48.38211" lon="-4.50637">
        <ele>88.004</ele>
        <time>2011-08-15T07:44:53Z</time>
      </trkpt>
      <trkpt lat="48.38211" lon="-4.50637">
        <ele>91.061</ele>
        <time>2011-08-15T07:44:55Z</time>
      </trkpt>
      <trkpt lat="48.38216" lon="-4.50642">
        <ele>94.371</ele>
        <time>2011-08-15T07:45:16Z</time>
      </trkpt>
    </trkseg>
  </trk>
  <trk>
    <name><![CDATA[ACTIVE LOG094520]]></name>
    <trkseg>
      <trkpt lat="48.38215" lon="-4.50641">
        <ele>95.071</ele>
        <time>2011-08-15T07:45:18Z</time>
      </trkpt>
      <trkpt lat="48.38228" lon="-4.50636">
        <ele>94.376</ele>
        <time>2011-08-15T07:45:57Z</time>
      </trkpt>
      <trkpt lat="48.38256" lon="-4.50639">
        <ele>95.159</ele>
        <time>2011-08-15T07:46:20Z</time>
      </trkpt>
      <trkpt lat="48.38256" lon="-4.50639">
        <ele>95.17</ele>
        <time>2011-08-15T07:46:22Z</time>
      </trkpt>
      <trkpt lat="48.38258" lon="-4.50643">
        <ele>95.422</ele>
        <time>2011-08-15T07:46:24Z</time>
      </trkpt>
      <trkpt lat="48.3826" lon="-4.5065">
        <ele>95.527</ele>
        <time>2011-08-15T07:46:27Z</time>
      </trkpt>
      <trkpt lat="48.38261" lon="-4.50659">
        <ele>95.873</ele>
        <time>2011-08-15T07:46:30Z</time>
      </trkpt>
      <trkpt lat="48.38265" lon="-4.50671">
        <ele>96.863</ele>
        <time>2011-08-15T07:46:33Z</time>
      </trkpt>
      <trkpt lat="48.38268" lon="-4.50726">
        <ele>100.112</ele>
        <time>2011-08-15T07:46:46Z</time>
      </trkpt>
      <trkpt lat="48.38278" lon="-4.50789">
        <ele>103.184</ele>
        <time>2011-08-15T07:47:00Z</time>
      </trkpt>
      <trkpt lat="48.38279" lon="-4.50798">
        <ele>103.684</ele>
        <time>2011-08-15T07:47:02Z</time>
      </trkpt>
      <trkpt lat="48.38282" lon="-4.50851">
        <ele>105.755</ele>
        <time>2011-08-15T07:47:14Z</time>
      </trkpt>
      <trkpt lat="48.38254" lon="-4.50869">
        <ele>106.471</ele>
        <time>2011-08-15T07:47:26Z</time>
      </trkpt>
      <trkpt lat="48.38218" lon="-4.50868">
        <ele>107.236</ele>
        <time>2011-08-15T07:47:36Z</time>
      </trkpt>
      <trkpt lat="48.38172" lon="-4.50896">
        <ele>106.585</ele>
        <time>2011-08-15T07:47:48Z</time>
      </trkpt>
      <trkpt lat="48.38156" lon="-4.50909">
        <ele>106.349</ele>
        <time>2011-08-15T07:47:51Z</time>
      </trkpt>
      <trkpt lat="48.38122" lon="-4.50991">
        <ele>106.963</ele>
        <time>2011-08-15T07:48:05Z</time>
      </trkpt>
      <trkpt lat="48.38134" lon="-4.51079">
        <ele>107.245</ele>
        <time>2011-08-15T07:48:20Z</time>
      </trkpt>
      <trkpt lat="48.38138" lon="-4.51229">
        <ele>105.348</ele>
        <time>2011-08-15T07:48:36Z</time>
      </trkpt>
      <trkpt lat="48.38134" lon="-4.51277">
        <ele>106.298</ele>
        <time>2011-08-15T07:48:42Z</time>
      </trkpt>
      <trkpt lat="48.38134" lon="-4.51418">
        <ele>107.804</ele>
        <time>2011-08-15T07:49:01Z</time>
      </trkpt>
      <trkpt lat="48.38134" lon="-4.5145">
        <ele>108.519</ele>
        <time>2011-08-15T07:49:06Z</time>
      </trkpt>
      <trkpt lat="48.38134" lon="-4.51469">
        <ele>108.579</ele>
        <time>2011-08-15T07:49:09Z</time>
      </trkpt>
      <trkpt lat="48.38134" lon="-4.51526">
        <ele>109.76</ele>
        <time>2011-08-15T07:49:18Z</time>
      </trkpt>
      <trkpt lat="48.38162" lon="-4.51534">
        <ele>110.271</ele>
        <time>2011-08-15T07:49:23Z</time>
      </trkpt>
      <trkpt lat="48.38231" lon="-4.5153">
        <ele>113.999</ele>
        <time>2011-08-15T07:49:40Z</time>
      </trkpt>
      <trkpt lat="48.38262" lon="-4.51527">
        <ele>116.38</ele>
        <time>2011-08-15T07:49:50Z</time>
      </trkpt>
      <trkpt lat="48.38262" lon="-4.51527">
        <ele>116.594</ele>
        <time>2011-08-15T07:50:04Z</time>
      </trkpt>
      <trkpt lat="48.38277" lon="-4.51543">
        <ele>116.037</ele>
        <time>2011-08-15T07:50:13Z</time>
      </trkpt>
      <trkpt lat="48.3828" lon="-4.51607">
        <ele>116.779</ele>
        <time>2011-08-15T07:50:24Z</time>
      </trkpt>
      <trkpt lat="48.3828" lon="-4.51614">
        <ele>116.924</ele>
        <time>2011-08-15T07:50:25Z</time>
      </trkpt>
      <trkpt lat="48.38282" lon="-4.51632">
        <ele>117.008</ele>
        <time>2011-08-15T07:50:28Z</time>
      </trkpt>
      <trkpt lat="48.38287" lon="-4.5168">
        <ele>117.748</ele>
        <time>2011-08-15T07:50:36Z</time>
      </trkpt>
      <trkpt lat="48.38292" lon="-4.51779">
        <ele>119.497</ele>
        <time>2011-08-15T07:50:52Z</time>
      </trkpt>
      <trkpt lat="48.38293" lon="-4.51815">
        <ele>120.562</ele>
        <time>2011-08-15T07:50:58Z</time>
      </trkpt>
      <trkpt lat="48.38296" lon="-4.51839">
        <ele>121.164</ele>
        <time>2011-08-15T07:51:02Z</time>
      </trkpt>
      <trkpt lat="48.38306" lon="-4.51922">
        <ele>122.649</ele>
        <time>2011-08-15T07:51:15Z</time>
      </trkpt>
      <trkpt lat="48.38304" lon="-4.51946">
        <ele>123.213</ele>
        <time>2011-08-15T07:51:19Z</time>
      </trkpt>
      <trkpt lat="48.38317" lon="-4.51989">
        <ele>124.185</ele>
        <time>2011-08-15T07:51:23Z</time>
      </trkpt>
      <trkpt lat="48.38357" lon="-4.51979">
        <ele>127.145</ele>
        <time>2011-08-15T07:51:36Z</time>
      </trkpt>
      <trkpt lat="48.38403" lon="-4.51968">
        <ele>129.469</ele>
        <time>2011-08-15T07:51:49Z</time>
      </trkpt>
      <trkpt lat="48.384" lon="-4.51994">
        <ele>129.555</ele>
        <time>2011-08-15T07:51:54Z</time>
      </trkpt>
      <trkpt lat="48.38397" lon="-4.52016">
        <ele>129.827</ele>
        <time>2011-08-15T07:51:58Z</time>
      </trkpt>
      <trkpt lat="48.38373" lon="-4.52137">
        <ele>130.17</ele>
        <time>2011-08-15T07:52:17Z</time>
      </trkpt>
      <trkpt lat="48.3834" lon="-4.52304">
        <ele>126.549</ele>
        <time>2011-08-15T07:52:38Z</time>
      </trkpt>
      <trkpt lat="48.38334" lon="-4.52332">
        <ele>125.166</ele>
        <time>2011-08-15T07:52:41Z</time>
      </trkpt>
      <trkpt lat="48.38331" lon="-4.52349">
        <ele>124.761</ele>
        <time>2011-08-15T07:52:43Z</time>
      </trkpt>
      <trkpt lat="48.38346" lon="-4.52374">
        <ele>124.087</ele>
        <time>2011-08-15T07:52:48Z</time>
      </trkpt>
      <trkpt lat="48.38357" lon="-4.52402">
        <ele>125.456</ele>
        <time>2011-08-15T07:52:55Z</time>
      </trkpt>
      <trkpt lat="48.38354" lon="-4.52414">
        <ele>126.558</ele>
        <time>2011-08-15T07:52:57Z</time>
      </trkpt>
      <trkpt lat="48.38349" lon="-4.52439">
        <ele>127.057</ele>
        <time>2011-08-15T07:53:01Z</time>
      </trkpt>
      <trkpt lat="48.38341" lon="-4.52469">
        <ele>128.187</ele>
        <time>2011-08-15T07:53:06Z</time>
      </trkpt>
      <trkpt lat="48.3833" lon="-4.52551">
        <ele>129.723</ele>
        <time>2011-08-15T07:53:18Z</time>
      </trkpt>
      <trkpt lat="48.38328" lon="-4.52574">
        <ele>130.451</ele>
        <time>2011-08-15T07:53:21Z</time>
      </trkpt>
      <trkpt lat="48.38325" lon="-4.52599">
        <ele>130.121</ele>
        <time>2011-08-15T07:53:24Z</time>
      </trkpt>
      <trkpt lat="48.38319" lon="-4.52657">
        <ele>131.715</ele>
        <time>2011-08-15T07:53:32Z</time>
      </trkpt>
      <trkpt lat="48.38311" lon="-4.52749">
        <ele>134.246</ele>
        <time>2011-08-15T07:53:47Z</time>
      </trkpt>
      <trkpt lat="48.38308" lon="-4.52796">
        <ele>133.812</ele>
        <time>2011-08-15T07:53:57Z</time>
      </trkpt>
      <trkpt lat="48.38306" lon="-4.52917">
        <ele>133.208</ele>
        <time>2011-08-15T07:54:13Z</time>
      </trkpt>
      <trkpt lat="48.38302" lon="-4.53077">
        <ele>132.115</ele>
        <time>2011-08-15T07:54:32Z</time>
      </trkpt>
      <trkpt lat="48.38302" lon="-4.53085">
        <ele>132.225</ele>
        <time>2011-08-15T07:54:33Z</time>
      </trkpt>
      <trkpt lat="48.38313" lon="-4.53121">
        <ele>130.435</ele>
        <time>2011-08-15T07:54:38Z</time>
      </trkpt>
      <trkpt lat="48.38323" lon="-4.53171">
        <ele>131.639</ele>
        <time>2011-08-15T07:54:46Z</time>
      </trkpt>
      <trkpt lat="48.38323" lon="-4.53276">
        <ele>129.404</ele>
        <time>2011-08-15T07:54:58Z</time>
      </trkpt>
      <trkpt lat="48.38323" lon="-4.53461">
        <ele>129.414</ele>
        <time>2011-08-15T07:55:19Z</time>
      </trkpt>
      <trkpt lat="48.38323" lon="-4.53496">
        <ele>129.563</ele>
        <time>2011-08-15T07:55:23Z</time>
      </trkpt>
      <trkpt lat="48.38317" lon="-4.5361">
        <ele>129.537</ele>
        <time>2011-08-15T07:55:37Z</time>
      </trkpt>
      <trkpt lat="48.38336" lon="-4.53632">
        <ele>130.511</ele>
        <time>2011-08-15T07:55:45Z</time>
      </trkpt>
      <trkpt lat="48.38351" lon="-4.53632">
        <ele>130.309</ele>
        <time>2011-08-15T07:55:49Z</time>
      </trkpt>
      <trkpt lat="48.38419" lon="-4.53611">
        <ele>130.165</ele>
        <time>2011-08-15T07:56:04Z</time>
      </trkpt>
      <trkpt lat="48.38426" lon="-4.53611">
        <ele>130.469</ele>
        <time>2011-08-15T07:56:07Z</time>
      </trkpt>
      <trkpt lat="48.38426" lon="-4.53611">
        <ele>131.116</ele>
        <time>2011-08-15T07:56:10Z</time>
      </trkpt>
      <trkpt lat="48.38439" lon="-4.53625">
        <ele>130.636</ele>
        <time>2011-08-15T07:56:16Z</time>
      </trkpt>
      <trkpt lat="48.38384" lon="-4.53733">
        <ele>129.307</ele>
        <time>2011-08-15T07:56:32Z</time>
      </trkpt>
      <trkpt lat="48.38381" lon="-4.5374">
        <ele>129.167</ele>
        <time>2011-08-15T07:56:33Z</time>
      </trkpt>
      <trkpt lat="48.38371" lon="-4.53761">
        <ele>128.615</ele>
        <time>2011-08-15T07:56:36Z</time>
      </trkpt>
      <trkpt lat="48.3835" lon="-4.53786">
        <ele>128.285</ele>
        <time>2011-08-15T07:56:41Z</time>
      </trkpt>
      <trkpt lat="48.38306" lon="-4.5383">
        <ele>128.478</ele>
        <time>2011-08-15T07:56:55Z</time>
      </trkpt>
      <trkpt lat="48.38286" lon="-4.53859">
        <ele>128.314</ele>
        <time>2011-08-15T07:57:00Z</time>
      </trkpt>
      <trkpt lat="48.3828" lon="-4.5389">
        <ele>126.943</ele>
        <time>2011-08-15T07:57:07Z</time>
      </trkpt>
      <trkpt lat="48.3828" lon="-4.54029">
        <ele>125.023</ele>
        <time>2011-08-15T07:57:22Z</time>
      </trkpt>
      <trkpt lat="48.38275" lon="-4.54112">
        <ele>123.018</ele>
        <time>2011-08-15T07:57:31Z</time>
      </trkpt>
      <trkpt lat="48.38273" lon="-4.54156">
        <ele>121.161</ele>
        <time>2011-08-15T07:57:35Z</time>
      </trkpt>
      <trkpt lat="48.38257" lon="-4.54217">
        <ele>120.483</ele>
        <time>2011-08-15T07:57:41Z</time>
      </trkpt>
      <trkpt lat="48.38235" lon="-4.54261">
        <ele>119.531</ele>
        <time>2011-08-15T07:57:46Z</time>
      </trkpt>
      <trkpt lat="48.38219" lon="-4.54287">
        <ele>118.725</ele>
        <time>2011-08-15T07:57:49Z</time>
      </trkpt>
      <trkpt lat="48.38201" lon="-4.54343">
        <ele>117.246</ele>
        <time>2011-08-15T07:57:54Z</time>
      </trkpt>
      <trkpt lat="48.38201" lon="-4.54356">
        <ele>116.547</ele>
        <time>2011-08-15T07:57:55Z</time>
      </trkpt>
      <trkpt lat="48.38186" lon="-4.54525">
        <ele>114.591</ele>
        <time>2011-08-15T07:58:09Z</time>
      </trkpt>
      <trkpt lat="48.38185" lon="-4.54536">
        <ele>114.514</ele>
        <time>2011-08-15T07:58:10Z</time>
      </trkpt>
      <trkpt lat="48.38182" lon="-4.54572">
        <ele>113.913</ele>
        <time>2011-08-15T07:58:13Z</time>
      </trkpt>
      <trkpt lat="48.38179" lon="-4.54609">
        <ele>112.667</ele>
        <time>2011-08-15T07:58:16Z</time>
      </trkpt>
      <trkpt lat="48.38145" lon="-4.54673">
        <ele>112.596</ele>
        <time>2011-08-15T07:58:23Z</time>
      </trkpt>
      <trkpt lat="48.38087" lon="-4.54776">
        <ele>110.098</ele>
        <time>2011-08-15T07:58:35Z</time>
      </trkpt>
      <trkpt lat="48.38076" lon="-4.54796">
        <ele>109.743</ele>
        <time>2011-08-15T07:58:38Z</time>
      </trkpt>
      <trkpt lat="48.38058" lon="-4.54833">
        <ele>108.594</ele>
        <time>2011-08-15T07:58:44Z</time>
      </trkpt>
      <trkpt lat="48.38012" lon="-4.54927">
        <ele>107.203</ele>
        <time>2011-08-15T07:58:54Z</time>
      </trkpt>
      <trkpt lat="48.37995" lon="-4.5497">
        <ele>107.704</ele>
        <time>2011-08-15T07:58:58Z</time>
      </trkpt>
      <trkpt lat="48.3794" lon="-4.55076">
        <ele>109.731</ele>
        <time>2011-08-15T07:59:09Z</time>
      </trkpt>
      <trkpt lat="48.37928" lon="-4.55099">
        <ele>110.134</ele>
        <time>2011-08-15T07:59:12Z</time>
      </trkpt>
      <trkpt lat="48.37905" lon="-4.55142">
        <ele>111.325</ele>
        <time>2011-08-15T07:59:18Z</time>
      </trkpt>
      <trkpt lat="48.37854" lon="-4.55241">
        <ele>113.044</ele>
        <time>2011-08-15T07:59:32Z</time>
      </trkpt>
      <trkpt lat="48.37818" lon="-4.55366">
        <ele>113.371</ele>
        <time>2011-08-15T07:59:47Z</time>
      </trkpt>
      <trkpt lat="48.37805" lon="-4.55408">
        <ele>113.447</ele>
        <time>2011-08-15T07:59:52Z</time>
      </trkpt>
      <trkpt lat="48.37787" lon="-4.55443">
        <ele>114.295</ele>
        <time>2011-08-15T07:59:58Z</time>
      </trkpt>
      <trkpt lat="48.37769" lon="-4.55492">
        <ele>114.535</ele>
        <time>2011-08-15T08:00:03Z</time>
      </trkpt>
      <trkpt lat="48.3774" lon="-4.55642">
        <ele>114.805</ele>
        <time>2011-08-15T08:00:20Z</time>
      </trkpt>
      <trkpt lat="48.37723" lon="-4.55679">
        <ele>115.238</ele>
        <time>2011-08-15T08:00:26Z</time>
      </trkpt>
      <trkpt lat="48.37713" lon="-4.55685">
        <ele>115.998</ele>
        <time>2011-08-15T08:00:28Z</time>
      </trkpt>
      <trkpt lat="48.37679" lon="-4.55726">
        <ele>114.824</ele>
        <time>2011-08-15T08:00:36Z</time>
      </trkpt>
      <trkpt lat="48.37679" lon="-4.55735">
        <ele>114.56</ele>
        <time>2011-08-15T08:00:37Z</time>
      </trkpt>
      <trkpt lat="48.37682" lon="-4.55774">
        <ele>114.718</ele>
        <time>2011-08-15T08:00:41Z</time>
      </trkpt>
      <trkpt lat="48.37693" lon="-4.5583">
        <ele>113.91</ele>
        <time>2011-08-15T08:00:47Z</time>
      </trkpt>
      <trkpt lat="48.37697" lon="-4.55904">
        <ele>111.9</ele>
        <time>2011-08-15T08:00:54Z</time>
      </trkpt>
      <trkpt lat="48.37689" lon="-4.55959">
        <ele>109.089</ele>
        <time>2011-08-15T08:00:59Z</time>
      </trkpt>
      <trkpt lat="48.37684" lon="-4.55993">
        <ele>108.763</ele>
        <time>2011-08-15T08:01:02Z</time>
      </trkpt>
      <trkpt lat="48.37679" lon="-4.56023">
        <ele>110.984</ele>
        <time>2011-08-15T08:01:08Z</time>
      </trkpt>
      <trkpt lat="48.37657" lon="-4.5611">
        <ele>113.204</ele>
        <time>2011-08-15T08:01:16Z</time>
      </trkpt>
      <trkpt lat="48.37643" lon="-4.56198">
        <ele>114.718</ele>
        <time>2011-08-15T08:01:26Z</time>
      </trkpt>
      <trkpt lat="48.37605" lon="-4.56309">
        <ele>116.311</ele>
        <time>2011-08-15T08:01:40Z</time>
      </trkpt>
      <trkpt lat="48.37555" lon="-4.56435">
        <ele>117.847</ele>
        <time>2011-08-15T08:01:56Z</time>
      </trkpt>
      <trkpt lat="48.37549" lon="-4.56456">
        <ele>118.264</ele>
        <time>2011-08-15T08:01:59Z</time>
      </trkpt>
      <trkpt lat="48.37544" lon="-4.56474">
        <ele>118.915</ele>
        <time>2011-08-15T08:02:02Z</time>
      </trkpt>
      <trkpt lat="48.3753" lon="-4.56544">
        <ele>118.689</ele>
        <time>2011-08-15T08:02:14Z</time>
      </trkpt>
      <trkpt lat="48.37526" lon="-4.56556">
        <ele>118.583</ele>
        <time>2011-08-15T08:02:16Z</time>
      </trkpt>
      <trkpt lat="48.37516" lon="-4.56603">
        <ele>117.973</ele>
        <time>2011-08-15T08:02:23Z</time>
      </trkpt>
      <trkpt lat="48.37514" lon="-4.56653">
        <ele>117.59</ele>
        <time>2011-08-15T08:02:29Z</time>
      </trkpt>
      <trkpt lat="48.37502" lon="-4.56738">
        <ele>117.478</ele>
        <time>2011-08-15T08:02:43Z</time>
      </trkpt>
      <trkpt lat="48.37494" lon="-4.56771">
        <ele>116.755</ele>
        <time>2011-08-15T08:02:48Z</time>
      </trkpt>
      <trkpt lat="48.3749" lon="-4.56797">
        <ele>116.535</ele>
        <time>2011-08-15T08:02:52Z</time>
      </trkpt>
      <trkpt lat="48.37487" lon="-4.56825">
        <ele>115.752</ele>
        <time>2011-08-15T08:02:56Z</time>
      </trkpt>
      <trkpt lat="48.37486" lon="-4.5683">
        <ele>115.406</ele>
        <time>2011-08-15T08:02:58Z</time>
      </trkpt>
      <trkpt lat="48.37486" lon="-4.5683">
        <ele>117.737</ele>
        <time>2011-08-15T08:03:02Z</time>
      </trkpt>
      <trkpt lat="48.37489" lon="-4.56955">
        <ele>116.595</ele>
        <time>2011-08-15T08:03:12Z</time>
      </trkpt>
      <trkpt lat="48.37463" lon="-4.56991">
        <ele>115.054</ele>
        <time>2011-08-15T08:03:18Z</time>
      </trkpt>
      <trkpt lat="48.37397" lon="-4.57097">
        <ele>113.33</ele>
        <time>2011-08-15T08:03:31Z</time>
      </trkpt>
      <trkpt lat="48.37394" lon="-4.57132">
        <ele>113.303</ele>
        <time>2011-08-15T08:03:35Z</time>
      </trkpt>
      <trkpt lat="48.37389" lon="-4.572">
        <ele>109.693</ele>
        <time>2011-08-15T08:03:42Z</time>
      </trkpt>
      <trkpt lat="48.37388" lon="-4.57224">
        <ele>108.571</ele>
        <time>2011-08-15T08:03:44Z</time>
      </trkpt>
      <trkpt lat="48.37379" lon="-4.57357">
        <ele>111.68</ele>
        <time>2011-08-15T08:03:58Z</time>
      </trkpt>
      <trkpt lat="48.37418" lon="-4.57383">
        <ele>113.767</ele>
        <time>2011-08-15T08:04:04Z</time>
      </trkpt>
      <trkpt lat="48.37429" lon="-4.57389">
        <ele>114.425</ele>
        <time>2011-08-15T08:04:06Z</time>
      </trkpt>
      <trkpt lat="48.37439" lon="-4.57394">
        <ele>115.236</ele>
        <time>2011-08-15T08:04:08Z</time>
      </trkpt>
      <trkpt lat="48.37468" lon="-4.5741">
        <ele>116.839</ele>
        <time>2011-08-15T08:04:14Z</time>
      </trkpt>
      <trkpt lat="48.37482" lon="-4.57418">
        <ele>117.606</ele>
        <time>2011-08-15T08:04:17Z</time>
      </trkpt>
      <trkpt lat="48.37559" lon="-4.5746">
        <ele>119.212</ele>
        <time>2011-08-15T08:04:34Z</time>
      </trkpt>
      <trkpt lat="48.37576" lon="-4.57473">
        <ele>119.305</ele>
        <time>2011-08-15T08:04:40Z</time>
      </trkpt>
      <trkpt lat="48.37543" lon="-4.57589">
        <ele>119.213</ele>
        <time>2011-08-15T08:04:52Z</time>
      </trkpt>
      <trkpt lat="48.37533" lon="-4.5762">
        <ele>118.811</ele>
        <time>2011-08-15T08:04:56Z</time>
      </trkpt>
      <trkpt lat="48.37513" lon="-4.57687">
        <ele>118.832</ele>
        <time>2011-08-15T08:05:04Z</time>
      </trkpt>
      <trkpt lat="48.37463" lon="-4.57858">
        <ele>117.92</ele>
        <time>2011-08-15T08:05:24Z</time>
      </trkpt>
      <trkpt lat="48.37446" lon="-4.57982">
        <ele>117.643</ele>
        <time>2011-08-15T08:05:37Z</time>
      </trkpt>
      <trkpt lat="48.37439" lon="-4.58085">
        <ele>116.751</ele>
        <time>2011-08-15T08:05:49Z</time>
      </trkpt>
      <trkpt lat="48.37408" lon="-4.58287">
        <ele>114.383</ele>
        <time>2011-08-15T08:06:09Z</time>
      </trkpt>
      <trkpt lat="48.37383" lon="-4.58482">
        <ele>116.577</ele>
        <time>2011-08-15T08:06:28Z</time>
      </trkpt>
      <trkpt lat="48.37364" lon="-4.58704">
        <ele>117.696</ele>
        <time>2011-08-15T08:06:50Z</time>
      </trkpt>
      <trkpt lat="48.37331" lon="-4.58833">
        <ele>117.837</ele>
        <time>2011-08-15T08:07:04Z</time>
      </trkpt>
      <trkpt lat="48.37322" lon="-4.58864">
        <ele>118.179</ele>
        <time>2011-08-15T08:07:08Z</time>
      </trkpt>
      <trkpt lat="48.3728" lon="-4.58984">
        <ele>117.613</ele>
        <time>2011-08-15T08:07:25Z</time>
      </trkpt>
      <trkpt lat="48.37241" lon="-4.59065">
        <ele>116.954</ele>
        <time>2011-08-15T08:07:33Z</time>
      </trkpt>
      <trkpt lat="48.3723" lon="-4.59088">
        <ele>117.059</ele>
        <time>2011-08-15T08:07:36Z</time>
      </trkpt>
      <trkpt lat="48.37219" lon="-4.59105">
        <ele>117.018</ele>
        <time>2011-08-15T08:07:39Z</time>
      </trkpt>
      <trkpt lat="48.37225" lon="-4.59143">
        <ele>116.928</ele>
        <time>2011-08-15T08:07:42Z</time>
      </trkpt>
      <trkpt lat="48.37202" lon="-4.5916">
        <ele>116.141</ele>
        <time>2011-08-15T08:07:46Z</time>
      </trkpt>
      <trkpt lat="48.37154" lon="-4.59375">
        <ele>114.188</ele>
        <time>2011-08-15T08:08:07Z</time>
      </trkpt>
      <trkpt lat="48.37148" lon="-4.59417">
        <ele>114.195</ele>
        <time>2011-08-15T08:08:11Z</time>
      </trkpt>
      <trkpt lat="48.37155" lon="-4.59594">
        <ele>112.389</ele>
        <time>2011-08-15T08:08:27Z</time>
      </trkpt>
      <trkpt lat="48.37156" lon="-4.59604">
        <ele>112.854</ele>
        <time>2011-08-15T08:08:28Z</time>
      </trkpt>
      <trkpt lat="48.37158" lon="-4.59722">
        <ele>111.398</ele>
        <time>2011-08-15T08:08:39Z</time>
      </trkpt>
      <trkpt lat="48.37131" lon="-4.59729">
        <ele>111.638</ele>
        <time>2011-08-15T08:08:46Z</time>
      </trkpt>
      <trkpt lat="48.37014" lon="-4.59625">
        <ele>110.739</ele>
        <time>2011-08-15T08:09:06Z</time>
      </trkpt>
      <trkpt lat="48.36874" lon="-4.59542">
        <ele>110.711</ele>
        <time>2011-08-15T08:09:27Z</time>
      </trkpt>
      <trkpt lat="48.3678" lon="-4.59465">
        <ele>111.882</ele>
        <time>2011-08-15T08:09:42Z</time>
      </trkpt>
      <trkpt lat="48.36768" lon="-4.5944">
        <ele>112.01</ele>
        <time>2011-08-15T08:09:45Z</time>
      </trkpt>
      <trkpt lat="48.36705" lon="-4.5924">
        <ele>113.312</ele>
        <time>2011-08-15T08:10:07Z</time>
      </trkpt>
      <trkpt lat="48.36691" lon="-4.59197">
        <ele>114.152</ele>
        <time>2011-08-15T08:10:13Z</time>
      </trkpt>
      <trkpt lat="48.36665" lon="-4.59186">
        <ele>114.626</ele>
        <time>2011-08-15T08:10:20Z</time>
      </trkpt>
      <trkpt lat="48.36663" lon="-4.59192">
        <ele>114.388</ele>
        <time>2011-08-15T08:10:21Z</time>
      </trkpt>
      <trkpt lat="48.36621" lon="-4.59315">
        <ele>113.34</ele>
        <time>2011-08-15T08:10:36Z</time>
      </trkpt>
      <trkpt lat="48.36537" lon="-4.59588">
        <ele>110.263</ele>
        <time>2011-08-15T08:11:04Z</time>
      </trkpt>
      <trkpt lat="48.36462" lon="-4.59793">
        <ele>107.228</ele>
        <time>2011-08-15T08:11:25Z</time>
      </trkpt>
      <trkpt lat="48.364" lon="-4.59942">
        <ele>104.156</ele>
        <time>2011-08-15T08:11:40Z</time>
      </trkpt>
      <trkpt lat="48.36362" lon="-4.60029">
        <ele>103.795</ele>
        <time>2011-08-15T08:11:49Z</time>
      </trkpt>
      <trkpt lat="48.36316" lon="-4.6005">
        <ele>103.055</ele>
        <time>2011-08-15T08:11:57Z</time>
      </trkpt>
      <trkpt lat="48.36302" lon="-4.60045">
        <ele>103.354</ele>
        <time>2011-08-15T08:11:59Z</time>
      </trkpt>
      <trkpt lat="48.36281" lon="-4.60088">
        <ele>104.385</ele>
        <time>2011-08-15T08:12:05Z</time>
      </trkpt>
      <trkpt lat="48.36234" lon="-4.60441">
        <ele>104.359</ele>
        <time>2011-08-15T08:12:37Z</time>
      </trkpt>
      <trkpt lat="48.36195" lon="-4.60723">
        <ele>106.317</ele>
        <time>2011-08-15T08:13:04Z</time>
      </trkpt>
      <trkpt lat="48.36176" lon="-4.61026">
        <ele>106.536</ele>
        <time>2011-08-15T08:13:32Z</time>
      </trkpt>
      <trkpt lat="48.36162" lon="-4.61251">
        <ele>107.676</ele>
        <time>2011-08-15T08:13:53Z</time>
      </trkpt>
      <trkpt lat="48.36169" lon="-4.61444">
        <ele>107.585</ele>
        <time>2011-08-15T08:14:12Z</time>
      </trkpt>
      <trkpt lat="48.36182" lon="-4.61669">
        <ele>107.052</ele>
        <time>2011-08-15T08:14:33Z</time>
      </trkpt>
      <trkpt lat="48.36186" lon="-4.61906">
        <ele>106.009</ele>
        <time>2011-08-15T08:14:54Z</time>
      </trkpt>
      <trkpt lat="48.36147" lon="-4.62022">
        <ele>104.725</ele>
        <time>2011-08-15T08:15:05Z</time>
      </trkpt>
      <trkpt lat="48.3606" lon="-4.62139">
        <ele>103.599</ele>
        <time>2011-08-15T08:15:20Z</time>
      </trkpt>
      <trkpt lat="48.35974" lon="-4.62286">
        <ele>101.447</ele>
        <time>2011-08-15T08:15:36Z</time>
      </trkpt>
      <trkpt lat="48.35922" lon="-4.62465">
        <ele>98.623</ele>
        <time>2011-08-15T08:15:52Z</time>
      </trkpt>
      <trkpt lat="48.35895" lon="-4.62671">
        <ele>96.464</ele>
        <time>2011-08-15T08:16:09Z</time>
      </trkpt>
      <trkpt lat="48.35877" lon="-4.63031">
        <ele>94.869</ele>
        <time>2011-08-15T08:16:39Z</time>
      </trkpt>
      <trkpt lat="48.35876" lon="-4.63321">
        <ele>91.644</ele>
        <time>2011-08-15T08:17:03Z</time>
      </trkpt>
      <trkpt lat="48.35877" lon="-4.6343">
        <ele>89.496</ele>
        <time>2011-08-15T08:17:12Z</time>
      </trkpt>
      <trkpt lat="48.35881" lon="-4.6364">
        <ele>86.234</ele>
        <time>2011-08-15T08:17:28Z</time>
      </trkpt>
      <trkpt lat="48.35881" lon="-4.63704">
        <ele>85.292</ele>
        <time>2011-08-15T08:17:33Z</time>
      </trkpt>
      <trkpt lat="48.35923" lon="-4.63763">
        <ele>83.623</ele>
        <time>2011-08-15T08:17:39Z</time>
      </trkpt>
      <trkpt lat="48.36059" lon="-4.63855">
        <ele>80.352</ele>
        <time>2011-08-15T08:17:56Z</time>
      </trkpt>
      <trkpt lat="48.36187" lon="-4.63922">
        <ele>80.782</ele>
        <time>2011-08-15T08:18:13Z</time>
      </trkpt>
      <trkpt lat="48.36319" lon="-4.63991">
        <ele>80.356</ele>
        <time>2011-08-15T08:18:32Z</time>
      </trkpt>
      <trkpt lat="48.36458" lon="-4.6411">
        <ele>79.752</ele>
        <time>2011-08-15T08:18:55Z</time>
      </trkpt>
      <trkpt lat="48.36587" lon="-4.64201">
        <ele>80.583</ele>
        <time>2011-08-15T08:19:16Z</time>
      </trkpt>
      <trkpt lat="48.36692" lon="-4.64237">
        <ele>81.81</ele>
        <time>2011-08-15T08:19:33Z</time>
      </trkpt>
      <trkpt lat="48.36846" lon="-4.64282">
        <ele>78.561</ele>
        <time>2011-08-15T08:19:55Z</time>
      </trkpt>
      <trkpt lat="48.36869" lon="-4.64286">
        <ele>76.747</ele>
        <time>2011-08-15T08:19:58Z</time>
      </trkpt>
      <trkpt lat="48.36922" lon="-4.64286">
        <ele>72.771</ele>
        <time>2011-08-15T08:20:04Z</time>
      </trkpt>
      <trkpt lat="48.36932" lon="-4.64286">
        <ele>72.773</ele>
        <time>2011-08-15T08:20:05Z</time>
      </trkpt>
      <trkpt lat="48.3695" lon="-4.64285">
        <ele>71.882</ele>
        <time>2011-08-15T08:20:07Z</time>
      </trkpt>
      <trkpt lat="48.36963" lon="-4.64284">
        <ele>71.015</ele>
        <time>2011-08-15T08:20:09Z</time>
      </trkpt>
      <trkpt lat="48.37011" lon="-4.64299">
        <ele>71.442</ele>
        <time>2011-08-15T08:20:14Z</time>
      </trkpt>
      <trkpt lat="48.37079" lon="-4.64318">
        <ele>70.3</ele>
        <time>2011-08-15T08:20:25Z</time>
      </trkpt>
      <trkpt lat="48.37186" lon="-4.64366">
        <ele>67.478</ele>
        <time>2011-08-15T08:20:37Z</time>
      </trkpt>
      <trkpt lat="48.37193" lon="-4.6437">
        <ele>67.351</ele>
        <time>2011-08-15T08:20:38Z</time>
      </trkpt>
      <trkpt lat="48.37293" lon="-4.644">
        <ele>65.265</ele>
        <time>2011-08-15T08:20:50Z</time>
      </trkpt>
      <trkpt lat="48.37319" lon="-4.644">
        <ele>65.804</ele>
        <time>2011-08-15T08:20:54Z</time>
      </trkpt>
      <trkpt lat="48.37351" lon="-4.64427">
        <ele>67.937</ele>
        <time>2011-08-15T08:21:00Z</time>
      </trkpt>
      <trkpt lat="48.37359" lon="-4.64436">
        <ele>69.229</ele>
        <time>2011-08-15T08:21:02Z</time>
      </trkpt>
      <trkpt lat="48.37368" lon="-4.64445">
        <ele>69.884</ele>
        <time>2011-08-15T08:21:04Z</time>
      </trkpt>
      <trkpt lat="48.37372" lon="-4.64449">
        <ele>70.104</ele>
        <time>2011-08-15T08:21:05Z</time>
      </trkpt>
      <trkpt lat="48.37439" lon="-4.64498">
        <ele>70.116</ele>
        <time>2011-08-15T08:21:19Z</time>
      </trkpt>
      <trkpt lat="48.37444" lon="-4.64502">
        <ele>70.284</ele>
        <time>2011-08-15T08:21:20Z</time>
      </trkpt>
      <trkpt lat="48.37452" lon="-4.64507">
        <ele>68.671</ele>
        <time>2011-08-15T08:21:24Z</time>
      </trkpt>
      <trkpt lat="48.37514" lon="-4.64488">
        <ele>65.878</ele>
        <time>2011-08-15T08:21:31Z</time>
      </trkpt>
      <trkpt lat="48.37517" lon="-4.64452">
        <ele>66.541</ele>
        <time>2011-08-15T08:21:36Z</time>
      </trkpt>
      <trkpt lat="48.37514" lon="-4.64444">
        <ele>66.421</ele>
        <time>2011-08-15T08:21:37Z</time>
      </trkpt>
      <trkpt lat="48.37519" lon="-4.64407">
        <ele>66.052</ele>
        <time>2011-08-15T08:21:42Z</time>
      </trkpt>
      <trkpt lat="48.37538" lon="-4.64397">
        <ele>64.82</ele>
        <time>2011-08-15T08:21:45Z</time>
      </trkpt>
      <trkpt lat="48.37568" lon="-4.64383">
        <ele>63.698</ele>
        <time>2011-08-15T08:21:51Z</time>
      </trkpt>
      <trkpt lat="48.37667" lon="-4.64363">
        <ele>61.962</ele>
        <time>2011-08-15T08:22:03Z</time>
      </trkpt>
      <trkpt lat="48.37684" lon="-4.64361">
        <ele>61.684</ele>
        <time>2011-08-15T08:22:06Z</time>
      </trkpt>
      <trkpt lat="48.37796" lon="-4.64386">
        <ele>60.379</ele>
        <time>2011-08-15T08:22:21Z</time>
      </trkpt>
      <trkpt lat="48.37954" lon="-4.64458">
        <ele>62.117</ele>
        <time>2011-08-15T08:22:44Z</time>
      </trkpt>
      <trkpt lat="48.38072" lon="-4.64524">
        <ele>62.256</ele>
        <time>2011-08-15T08:23:03Z</time>
      </trkpt>
      <trkpt lat="48.382" lon="-4.64597">
        <ele>65.5</ele>
        <time>2011-08-15T08:23:26Z</time>
      </trkpt>
      <trkpt lat="48.38273" lon="-4.64683">
        <ele>67.024</ele>
        <time>2011-08-15T08:23:43Z</time>
      </trkpt>
      <trkpt lat="48.38349" lon="-4.64851">
        <ele>67.918</ele>
        <time>2011-08-15T08:24:06Z</time>
      </trkpt>
      <trkpt lat="48.38379" lon="-4.6494">
        <ele>70.923</ele>
        <time>2011-08-15T08:24:19Z</time>
      </trkpt>
      <trkpt lat="48.38393" lon="-4.64981">
        <ele>72.362</ele>
        <time>2011-08-15T08:24:26Z</time>
      </trkpt>
      <trkpt lat="48.38409" lon="-4.65027">
        <ele>74.168</ele>
        <time>2011-08-15T08:24:34Z</time>
      </trkpt>
      <trkpt lat="48.3844" lon="-4.65107">
        <ele>76.848</ele>
        <time>2011-08-15T08:24:49Z</time>
      </trkpt>
      <trkpt lat="48.38468" lon="-4.65145">
        <ele>80.103</ele>
        <time>2011-08-15T08:24:59Z</time>
      </trkpt>
      <trkpt lat="48.38509" lon="-4.65182">
        <ele>83.177</ele>
        <time>2011-08-15T08:25:12Z</time>
      </trkpt>
      <trkpt lat="48.38554" lon="-4.6522">
        <ele>86.224</ele>
        <time>2011-08-15T08:25:28Z</time>
      </trkpt>
      <trkpt lat="48.38611" lon="-4.65258">
        <ele>87.069</ele>
        <time>2011-08-15T08:25:45Z</time>
      </trkpt>
      <trkpt lat="48.38687" lon="-4.65283">
        <ele>89.095</ele>
        <time>2011-08-15T08:26:03Z</time>
      </trkpt>
      <trkpt lat="48.38791" lon="-4.65318">
        <ele>90.729</ele>
        <time>2011-08-15T08:26:26Z</time>
      </trkpt>
      <trkpt lat="48.38845" lon="-4.6531">
        <ele>92.524</ele>
        <time>2011-08-15T08:26:38Z</time>
      </trkpt>
      <trkpt lat="48.38897" lon="-4.65288">
        <ele>93.056</ele>
        <time>2011-08-15T08:26:49Z</time>
      </trkpt>
      <trkpt lat="48.38929" lon="-4.65274">
        <ele>94.447</ele>
        <time>2011-08-15T08:26:58Z</time>
      </trkpt>
      <trkpt lat="48.38933" lon="-4.65328">
        <ele>95.182</ele>
        <time>2011-08-15T08:27:08Z</time>
      </trkpt>
      <trkpt lat="48.38927" lon="-4.65404">
        <ele>96.016</ele>
        <time>2011-08-15T08:27:19Z</time>
      </trkpt>
      <trkpt lat="48.38924" lon="-4.65438">
        <ele>97.594</ele>
        <time>2011-08-15T08:27:24Z</time>
      </trkpt>
      <trkpt lat="48.38916" lon="-4.65557">
        <ele>100.771</ele>
        <time>2011-08-15T08:27:42Z</time>
      </trkpt>
      <trkpt lat="48.38918" lon="-4.65575">
        <ele>101.647</ele>
        <time>2011-08-15T08:27:45Z</time>
      </trkpt>
      <trkpt lat="48.38927" lon="-4.65652">
        <ele>104.919</ele>
        <time>2011-08-15T08:27:57Z</time>
      </trkpt>
      <trkpt lat="48.38949" lon="-4.65746">
        <ele>107.932</ele>
        <time>2011-08-15T08:28:11Z</time>
      </trkpt>
      <trkpt lat="48.38951" lon="-4.65752">
        <ele>108.148</ele>
        <time>2011-08-15T08:28:12Z</time>
      </trkpt>
      <trkpt lat="48.38963" lon="-4.65863">
        <ele>110.789</ele>
        <time>2011-08-15T08:28:31Z</time>
      </trkpt>
      <trkpt lat="48.38963" lon="-4.65913">
        <ele>110.475</ele>
        <time>2011-08-15T08:28:39Z</time>
      </trkpt>
      <trkpt lat="48.38993" lon="-4.66048">
        <ele>108.479</ele>
        <time>2011-08-15T08:28:56Z</time>
      </trkpt>
      <trkpt lat="48.39059" lon="-4.66118">
        <ele>107.238</ele>
        <time>2011-08-15T08:29:08Z</time>
      </trkpt>
      <trkpt lat="48.39104" lon="-4.66155">
        <ele>103.708</ele>
        <time>2011-08-15T08:29:17Z</time>
      </trkpt>
      <trkpt lat="48.39131" lon="-4.66182">
        <ele>102.972</ele>
        <time>2011-08-15T08:29:19Z</time>
      </trkpt>
      <trkpt lat="48.39177" lon="-4.66219">
        <ele>99.385</ele>
        <time>2011-08-15T08:29:27Z</time>
      </trkpt>
      <trkpt lat="48.39198" lon="-4.66241">
        <ele>99.257</ele>
        <time>2011-08-15T08:29:28Z</time>
      </trkpt>
      <trkpt lat="48.39306" lon="-4.66353">
        <ele>101.698</ele>
        <time>2011-08-15T08:29:45Z</time>
      </trkpt>
      <trkpt lat="48.39347" lon="-4.664">
        <ele>103.459</ele>
        <time>2011-08-15T08:29:53Z</time>
      </trkpt>
      <trkpt lat="48.39439" lon="-4.6645">
        <ele>102.664</ele>
        <time>2011-08-15T08:30:08Z</time>
      </trkpt>
      <trkpt lat="48.39525" lon="-4.66479">
        <ele>99.468</ele>
        <time>2011-08-15T08:30:20Z</time>
      </trkpt>
      <trkpt lat="48.39559" lon="-4.6649">
        <ele>96.446</ele>
        <time>2011-08-15T08:30:26Z</time>
      </trkpt>
      <trkpt lat="48.39609" lon="-4.66504">
        <ele>94.941</ele>
        <time>2011-08-15T08:30:30Z</time>
      </trkpt>
      <trkpt lat="48.39646" lon="-4.66506">
        <ele>92.565</ele>
        <time>2011-08-15T08:30:34Z</time>
      </trkpt>
      <trkpt lat="48.39709" lon="-4.66495">
        <ele>90.412</ele>
        <time>2011-08-15T08:30:41Z</time>
      </trkpt>
      <trkpt lat="48.39778" lon="-4.6648">
        <ele>89.282</ele>
        <time>2011-08-15T08:30:49Z</time>
      </trkpt>
      <trkpt lat="48.39883" lon="-4.66501">
        <ele>87.445</ele>
        <time>2011-08-15T08:31:02Z</time>
      </trkpt>
      <trkpt lat="48.39935" lon="-4.66546">
        <ele>89.275</ele>
        <time>2011-08-15T08:31:10Z</time>
      </trkpt>
      <trkpt lat="48.39946" lon="-4.66557">
        <ele>90.411</ele>
        <time>2011-08-15T08:31:12Z</time>
      </trkpt>
      <trkpt lat="48.39994" lon="-4.66607">
        <ele>93.882</ele>
        <time>2011-08-15T08:31:22Z</time>
      </trkpt>
      <trkpt lat="48.39997" lon="-4.6661">
        <ele>94.659</ele>
        <time>2011-08-15T08:31:24Z</time>
      </trkpt>
      <trkpt lat="48.4003" lon="-4.66634">
        <ele>96.363</ele>
        <time>2011-08-15T08:31:30Z</time>
      </trkpt>
      <trkpt lat="48.40056" lon="-4.66653">
        <ele>97.833</ele>
        <time>2011-08-15T08:31:36Z</time>
      </trkpt>
      <trkpt lat="48.401" lon="-4.66687">
        <ele>99.458</ele>
        <time>2011-08-15T08:31:50Z</time>
      </trkpt>
      <trkpt lat="48.40104" lon="-4.66692">
        <ele>99.831</ele>
        <time>2011-08-15T08:31:52Z</time>
      </trkpt>
      <trkpt lat="48.40154" lon="-4.66649">
        <ele>99.543</ele>
        <time>2011-08-15T08:32:04Z</time>
      </trkpt>
      <trkpt lat="48.40215" lon="-4.66593">
        <ele>100.684</ele>
        <time>2011-08-15T08:32:18Z</time>
      </trkpt>
      <trkpt lat="48.40235" lon="-4.66605">
        <ele>101.379</ele>
        <time>2011-08-15T08:32:24Z</time>
      </trkpt>
      <trkpt lat="48.40303" lon="-4.66723">
        <ele>100.318</ele>
        <time>2011-08-15T08:32:42Z</time>
      </trkpt>
      <trkpt lat="48.40385" lon="-4.66834">
        <ele>100.612</ele>
        <time>2011-08-15T08:32:59Z</time>
      </trkpt>
      <trkpt lat="48.40471" lon="-4.6695">
        <ele>103.19</ele>
        <time>2011-08-15T08:33:18Z</time>
      </trkpt>
      <trkpt lat="48.40484" lon="-4.66968">
        <ele>104.123</ele>
        <time>2011-08-15T08:33:21Z</time>
      </trkpt>
      <trkpt lat="48.40529" lon="-4.66985">
        <ele>105.541</ele>
        <time>2011-08-15T08:33:29Z</time>
      </trkpt>
      <trkpt lat="48.40535" lon="-4.66987">
        <ele>105.856</ele>
        <time>2011-08-15T08:33:30Z</time>
      </trkpt>
      <trkpt lat="48.40539" lon="-4.67029">
        <ele>107.967</ele>
        <time>2011-08-15T08:33:39Z</time>
      </trkpt>
      <trkpt lat="48.40522" lon="-4.67088">
        <ele>108.784</ele>
        <time>2011-08-15T08:33:47Z</time>
      </trkpt>
      <trkpt lat="48.40512" lon="-4.67121">
        <ele>108.043</ele>
        <time>2011-08-15T08:33:51Z</time>
      </trkpt>
      <trkpt lat="48.40504" lon="-4.67148">
        <ele>107.205</ele>
        <time>2011-08-15T08:33:54Z</time>
      </trkpt>
      <trkpt lat="48.40475" lon="-4.67245">
        <ele>104.327</ele>
        <time>2011-08-15T08:34:04Z</time>
      </trkpt>
      <trkpt lat="48.40453" lon="-4.67305">
        <ele>102.198</ele>
        <time>2011-08-15T08:34:10Z</time>
      </trkpt>
      <trkpt lat="48.40426" lon="-4.67379">
        <ele>100.178</ele>
        <time>2011-08-15T08:34:17Z</time>
      </trkpt>
      <trkpt lat="48.40402" lon="-4.67448">
        <ele>97.616</ele>
        <time>2011-08-15T08:34:23Z</time>
      </trkpt>
      <trkpt lat="48.40325" lon="-4.67642">
        <ele>94.195</ele>
        <time>2011-08-15T08:34:38Z</time>
      </trkpt>
      <trkpt lat="48.40236" lon="-4.67918">
        <ele>95.646</ele>
        <time>2011-08-15T08:35:03Z</time>
      </trkpt>
      <trkpt lat="48.40201" lon="-4.68074">
        <ele>98.725</ele>
        <time>2011-08-15T08:35:18Z</time>
      </trkpt>
      <trkpt lat="48.40158" lon="-4.68245">
        <ele>96.005</ele>
        <time>2011-08-15T08:35:34Z</time>
      </trkpt>
      <trkpt lat="48.40089" lon="-4.68468">
        <ele>96.088</ele>
        <time>2011-08-15T08:35:55Z</time>
      </trkpt>
      <trkpt lat="48.40078" lon="-4.68648">
        <ele>94.797</ele>
        <time>2011-08-15T08:36:10Z</time>
      </trkpt>
      <trkpt lat="48.40096" lon="-4.6882">
        <ele>95.551</ele>
        <time>2011-08-15T08:36:26Z</time>
      </trkpt>
      <trkpt lat="48.40128" lon="-4.69096">
        <ele>97.083</ele>
        <time>2011-08-15T08:36:54Z</time>
      </trkpt>
      <trkpt lat="48.4014" lon="-4.69328">
        <ele>100.304</ele>
        <time>2011-08-15T08:37:19Z</time>
      </trkpt>
      <trkpt lat="48.40147" lon="-4.69466">
        <ele>103.36</ele>
        <time>2011-08-15T08:37:35Z</time>
      </trkpt>
      <trkpt lat="48.40157" lon="-4.6967">
        <ele>101.486</ele>
        <time>2011-08-15T08:37:56Z</time>
      </trkpt>
      <trkpt lat="48.40183" lon="-4.69952">
        <ele>99.801</ele>
        <time>2011-08-15T08:38:21Z</time>
      </trkpt>
      <trkpt lat="48.40231" lon="-4.70197">
        <ele>96.602</ele>
        <time>2011-08-15T08:38:42Z</time>
      </trkpt>
      <trkpt lat="48.40255" lon="-4.70313">
        <ele>93.482</ele>
        <time>2011-08-15T08:38:51Z</time>
      </trkpt>
      <trkpt lat="48.40257" lon="-4.70327">
        <ele>93.288</ele>
        <time>2011-08-15T08:38:52Z</time>
      </trkpt>
      <trkpt lat="48.40277" lon="-4.70425">
        <ele>90.127</ele>
        <time>2011-08-15T08:38:59Z</time>
      </trkpt>
      <trkpt lat="48.40299" lon="-4.70614">
        <ele>93.528</ele>
        <time>2011-08-15T08:39:13Z</time>
      </trkpt>
      <trkpt lat="48.403" lon="-4.70666">
        <ele>93.398</ele>
        <time>2011-08-15T08:39:17Z</time>
      </trkpt>
      <trkpt lat="48.40318" lon="-4.70882">
        <ele>92.175</ele>
        <time>2011-08-15T08:39:33Z</time>
      </trkpt>
      <trkpt lat="48.40351" lon="-4.71131">
        <ele>91.772</ele>
        <time>2011-08-15T08:39:54Z</time>
      </trkpt>
      <trkpt lat="48.4039" lon="-4.71329">
        <ele>93.271</ele>
        <time>2011-08-15T08:40:14Z</time>
      </trkpt>
      <trkpt lat="48.40399" lon="-4.71445">
        <ele>89.698</ele>
        <time>2011-08-15T08:40:24Z</time>
      </trkpt>
      <trkpt lat="48.40408" lon="-4.71693">
        <ele>87.105</ele>
        <time>2011-08-15T08:40:43Z</time>
      </trkpt>
      <trkpt lat="48.40401" lon="-4.71856">
        <ele>86.06</ele>
        <time>2011-08-15T08:40:57Z</time>
      </trkpt>
      <trkpt lat="48.40392" lon="-4.72015">
        <ele>85.261</ele>
        <time>2011-08-15T08:41:12Z</time>
      </trkpt>
      <trkpt lat="48.40379" lon="-4.72124">
        <ele>85.2</ele>
        <time>2011-08-15T08:41:22Z</time>
      </trkpt>
      <trkpt lat="48.40353" lon="-4.72261">
        <ele>86.467</ele>
        <time>2011-08-15T08:41:36Z</time>
      </trkpt>
      <trkpt lat="48.40348" lon="-4.72285">
        <ele>86.559</ele>
        <time>2011-08-15T08:41:39Z</time>
      </trkpt>
      <trkpt lat="48.40363" lon="-4.72336">
        <ele>86.226</ele>
        <time>2011-08-15T08:41:46Z</time>
      </trkpt>
      <trkpt lat="48.40377" lon="-4.72357">
        <ele>85.108</ele>
        <time>2011-08-15T08:41:49Z</time>
      </trkpt>
      <trkpt lat="48.4049" lon="-4.72487">
        <ele>83.338</ele>
        <time>2011-08-15T08:42:08Z</time>
      </trkpt>
      <trkpt lat="48.40608" lon="-4.72588">
        <ele>83.353</ele>
        <time>2011-08-15T08:42:26Z</time>
      </trkpt>
      <trkpt lat="48.40619" lon="-4.72597">
        <ele>81.546</ele>
        <time>2011-08-15T08:42:28Z</time>
      </trkpt>
      <trkpt lat="48.40675" lon="-4.72625">
        <ele>78.511</ele>
        <time>2011-08-15T08:42:34Z</time>
      </trkpt>
      <trkpt lat="48.40683" lon="-4.7263">
        <ele>78.326</ele>
        <time>2011-08-15T08:42:35Z</time>
      </trkpt>
      <trkpt lat="48.40772" lon="-4.72657">
        <ele>79.496</ele>
        <time>2011-08-15T08:42:45Z</time>
      </trkpt>
      <trkpt lat="48.40787" lon="-4.72657">
        <ele>80.629</ele>
        <time>2011-08-15T08:42:47Z</time>
      </trkpt>
      <trkpt lat="48.40846" lon="-4.72662">
        <ele>82.826</ele>
        <time>2011-08-15T08:42:56Z</time>
      </trkpt>
      <trkpt lat="48.40937" lon="-4.72693">
        <ele>86.593</ele>
        <time>2011-08-15T08:43:09Z</time>
      </trkpt>
      <trkpt lat="48.41067" lon="-4.72758">
        <ele>86.076</ele>
        <time>2011-08-15T08:43:30Z</time>
      </trkpt>
      <trkpt lat="48.41144" lon="-4.72796">
        <ele>83.064</ele>
        <time>2011-08-15T08:43:41Z</time>
      </trkpt>
      <trkpt lat="48.41241" lon="-4.72837">
        <ele>79.868</ele>
        <time>2011-08-15T08:43:53Z</time>
      </trkpt>
      <trkpt lat="48.41331" lon="-4.72875">
        <ele>76.798</ele>
        <time>2011-08-15T08:44:03Z</time>
      </trkpt>
      <trkpt lat="48.4145" lon="-4.72889">
        <ele>76.267</ele>
        <time>2011-08-15T08:44:16Z</time>
      </trkpt>
      <trkpt lat="48.41525" lon="-4.72889">
        <ele>79.3</ele>
        <time>2011-08-15T08:44:26Z</time>
      </trkpt>
      <trkpt lat="48.41538" lon="-4.72889">
        <ele>80.188</ele>
        <time>2011-08-15T08:44:28Z</time>
      </trkpt>
      <trkpt lat="48.41549" lon="-4.72892">
        <ele>80.866</ele>
        <time>2011-08-15T08:44:30Z</time>
      </trkpt>
      <trkpt lat="48.4161" lon="-4.72919">
        <ele>84.437</ele>
        <time>2011-08-15T08:44:42Z</time>
      </trkpt>
      <trkpt lat="48.4172" lon="-4.72966">
        <ele>87.174</ele>
        <time>2011-08-15T08:45:04Z</time>
      </trkpt>
      <trkpt lat="48.41797" lon="-4.7302">
        <ele>83.941</ele>
        <time>2011-08-15T08:45:18Z</time>
      </trkpt>
      <trkpt lat="48.41886" lon="-4.73092">
        <ele>80.401</ele>
        <time>2011-08-15T08:45:31Z</time>
      </trkpt>
      <trkpt lat="48.42041" lon="-4.73159">
        <ele>77.944</ele>
        <time>2011-08-15T08:45:50Z</time>
      </trkpt>
      <trkpt lat="48.42166" lon="-4.73185">
        <ele>80.489</ele>
        <time>2011-08-15T08:46:07Z</time>
      </trkpt>
      <trkpt lat="48.42305" lon="-4.73148">
        <ele>82.357</ele>
        <time>2011-08-15T08:46:27Z</time>
      </trkpt>
      <trkpt lat="48.42392" lon="-4.73128">
        <ele>85.759</ele>
        <time>2011-08-15T08:46:41Z</time>
      </trkpt>
      <trkpt lat="48.42519" lon="-4.73124">
        <ele>86.755</ele>
        <time>2011-08-15T08:47:02Z</time>
      </trkpt>
      <trkpt lat="48.42655" lon="-4.73117">
        <ele>86.799</ele>
        <time>2011-08-15T08:47:22Z</time>
      </trkpt>
      <trkpt lat="48.4267" lon="-4.73117">
        <ele>86.272</ele>
        <time>2011-08-15T08:47:24Z</time>
      </trkpt>
      <trkpt lat="48.42686" lon="-4.73119">
        <ele>85.441</ele>
        <time>2011-08-15T08:47:26Z</time>
      </trkpt>
      <trkpt lat="48.42742" lon="-4.73138">
        <ele>83.461</ele>
        <time>2011-08-15T08:47:33Z</time>
      </trkpt>
      <trkpt lat="48.42774" lon="-4.73158">
        <ele>81.076</ele>
        <time>2011-08-15T08:47:37Z</time>
      </trkpt>
      <trkpt lat="48.42791" lon="-4.73172">
        <ele>79.732</ele>
        <time>2011-08-15T08:47:39Z</time>
      </trkpt>
      <trkpt lat="48.42808" lon="-4.73187">
        <ele>78.465</ele>
        <time>2011-08-15T08:47:41Z</time>
      </trkpt>
      <trkpt lat="48.42915" lon="-4.73279">
        <ele>75.173</ele>
        <time>2011-08-15T08:47:53Z</time>
      </trkpt>
      <trkpt lat="48.42945" lon="-4.73305">
        <ele>73.021</ele>
        <time>2011-08-15T08:47:57Z</time>
      </trkpt>
      <trkpt lat="48.42991" lon="-4.73337">
        <ele>71.443</ele>
        <time>2011-08-15T08:48:01Z</time>
      </trkpt>
      <trkpt lat="48.43039" lon="-4.7337">
        <ele>70.916</ele>
        <time>2011-08-15T08:48:06Z</time>
      </trkpt>
      <trkpt lat="48.43104" lon="-4.73378">
        <ele>70.769</ele>
        <time>2011-08-15T08:48:14Z</time>
      </trkpt>
      <trkpt lat="48.43254" lon="-4.73256">
        <ele>73.57</ele>
        <time>2011-08-15T08:48:30Z</time>
      </trkpt>
      <trkpt lat="48.43282" lon="-4.73226">
        <ele>75.022</ele>
        <time>2011-08-15T08:48:36Z</time>
      </trkpt>
      <trkpt lat="48.433" lon="-4.73206">
        <ele>74.39</ele>
        <time>2011-08-15T08:48:40Z</time>
      </trkpt>
      <trkpt lat="48.4336" lon="-4.73115">
        <ele>75.754</ele>
        <time>2011-08-15T08:48:55Z</time>
      </trkpt>
      <trkpt lat="48.43378" lon="-4.73102">
        <ele>76.045</ele>
        <time>2011-08-15T08:48:59Z</time>
      </trkpt>
      <trkpt lat="48.43375" lon="-4.73042">
        <ele>74.871</ele>
        <time>2011-08-15T08:49:06Z</time>
      </trkpt>
      <trkpt lat="48.43366" lon="-4.73004">
        <ele>74.374</ele>
        <time>2011-08-15T08:49:11Z</time>
      </trkpt>
      <trkpt lat="48.43362" lon="-4.72966">
        <ele>74.417</ele>
        <time>2011-08-15T08:49:14Z</time>
      </trkpt>
      <trkpt lat="48.43359" lon="-4.72936">
        <ele>73.039</ele>
        <time>2011-08-15T08:49:17Z</time>
      </trkpt>
      <trkpt lat="48.43359" lon="-4.72804">
        <ele>71.511</ele>
        <time>2011-08-15T08:49:30Z</time>
      </trkpt>
      <trkpt lat="48.43349" lon="-4.72659">
        <ele>70.983</ele>
        <time>2011-08-15T08:49:46Z</time>
      </trkpt>
      <trkpt lat="48.4335" lon="-4.7262">
        <ele>69.365</ele>
        <time>2011-08-15T08:49:51Z</time>
      </trkpt>
      <trkpt lat="48.43367" lon="-4.72384">
        <ele>69.463</ele>
        <time>2011-08-15T08:50:14Z</time>
      </trkpt>
      <trkpt lat="48.43374" lon="-4.72225">
        <ele>72.468</ele>
        <time>2011-08-15T08:50:31Z</time>
      </trkpt>
      <trkpt lat="48.43366" lon="-4.72119">
        <ele>74.991</ele>
        <time>2011-08-15T08:50:44Z</time>
      </trkpt>
      <trkpt lat="48.43362" lon="-4.72079">
        <ele>76.248</ele>
        <time>2011-08-15T08:50:49Z</time>
      </trkpt>
      <trkpt lat="48.43359" lon="-4.7205">
        <ele>77.243</ele>
        <time>2011-08-15T08:50:53Z</time>
      </trkpt>
      <trkpt lat="48.43344" lon="-4.71976">
        <ele>78.51</ele>
        <time>2011-08-15T08:51:03Z</time>
      </trkpt>
      <trkpt lat="48.43337" lon="-4.71851">
        <ele>81.062</ele>
        <time>2011-08-15T08:51:19Z</time>
      </trkpt>
      <trkpt lat="48.43336" lon="-4.71827">
        <ele>81.706</ele>
        <time>2011-08-15T08:51:22Z</time>
      </trkpt>
      <trkpt lat="48.43341" lon="-4.7178">
        <ele>82.594</ele>
        <time>2011-08-15T08:51:28Z</time>
      </trkpt>
      <trkpt lat="48.43368" lon="-4.71604">
        <ele>84.231</ele>
        <time>2011-08-15T08:51:50Z</time>
      </trkpt>
      <trkpt lat="48.43374" lon="-4.7143">
        <ele>87.343</ele>
        <time>2011-08-15T08:52:11Z</time>
      </trkpt>
      <trkpt lat="48.43366" lon="-4.71266">
        <ele>88.541</ele>
        <time>2011-08-15T08:52:30Z</time>
      </trkpt>
      <trkpt lat="48.43339" lon="-4.71017">
        <ele>84.888</ele>
        <time>2011-08-15T08:52:55Z</time>
      </trkpt>
      <trkpt lat="48.43335" lon="-4.70928">
        <ele>81.198</ele>
        <time>2011-08-15T08:53:02Z</time>
      </trkpt>
      <trkpt lat="48.43332" lon="-4.70856">
        <ele>78.097</ele>
        <time>2011-08-15T08:53:07Z</time>
      </trkpt>
      <trkpt lat="48.43331" lon="-4.70841">
        <ele>78.078</ele>
        <time>2011-08-15T08:53:08Z</time>
      </trkpt>
      <trkpt lat="48.43329" lon="-4.70795">
        <ele>75.737</ele>
        <time>2011-08-15T08:53:11Z</time>
      </trkpt>
      <trkpt lat="48.43305" lon="-4.70585">
        <ele>79.072</ele>
        <time>2011-08-15T08:53:27Z</time>
      </trkpt>
      <trkpt lat="48.43287" lon="-4.70482">
        <ele>82.549</ele>
        <time>2011-08-15T08:53:38Z</time>
      </trkpt>
      <trkpt lat="48.43269" lon="-4.70391">
        <ele>85.687</ele>
        <time>2011-08-15T08:53:50Z</time>
      </trkpt>
      <trkpt lat="48.43256" lon="-4.70323">
        <ele>88.738</ele>
        <time>2011-08-15T08:54:00Z</time>
      </trkpt>
      <trkpt lat="48.43236" lon="-4.70231">
        <ele>91.996</ele>
        <time>2011-08-15T08:54:14Z</time>
      </trkpt>
      <trkpt lat="48.43224" lon="-4.70134">
        <ele>95.212</ele>
        <time>2011-08-15T08:54:28Z</time>
      </trkpt>
      <trkpt lat="48.43216" lon="-4.7006">
        <ele>98.24</ele>
        <time>2011-08-15T08:54:41Z</time>
      </trkpt>
      <trkpt lat="48.43197" lon="-4.69879">
        <ele>100.072</ele>
        <time>2011-08-15T08:55:08Z</time>
      </trkpt>
      <trkpt lat="48.43197" lon="-4.69702">
        <ele>100.236</ele>
        <time>2011-08-15T08:55:28Z</time>
      </trkpt>
      <trkpt lat="48.43224" lon="-4.69477">
        <ele>100.577</ele>
        <time>2011-08-15T08:55:49Z</time>
      </trkpt>
      <trkpt lat="48.43272" lon="-4.69155">
        <ele>100.907</ele>
        <time>2011-08-15T08:56:18Z</time>
      </trkpt>
      <trkpt lat="48.43318" lon="-4.68837">
        <ele>99.522</ele>
        <time>2011-08-15T08:56:45Z</time>
      </trkpt>
      <trkpt lat="48.4337" lon="-4.68572">
        <ele>96.181</ele>
        <time>2011-08-15T08:57:07Z</time>
      </trkpt>
      <trkpt lat="48.43418" lon="-4.68314">
        <ele>93.234</ele>
        <time>2011-08-15T08:57:28Z</time>
      </trkpt>
      <trkpt lat="48.4344" lon="-4.68045">
        <ele>93.38</ele>
        <time>2011-08-15T08:57:49Z</time>
      </trkpt>
      <trkpt lat="48.43449" lon="-4.6794">
        <ele>92.127</ele>
        <time>2011-08-15T08:57:57Z</time>
      </trkpt>
      <trkpt lat="48.43467" lon="-4.67803">
        <ele>89.873</ele>
        <time>2011-08-15T08:58:07Z</time>
      </trkpt>
      <trkpt lat="48.43506" lon="-4.67536">
        <ele>87.035</ele>
        <time>2011-08-15T08:58:27Z</time>
      </trkpt>
      <trkpt lat="48.43574" lon="-4.67267">
        <ele>87.213</ele>
        <time>2011-08-15T08:58:50Z</time>
      </trkpt>
      <trkpt lat="48.43602" lon="-4.67154">
        <ele>83.597</ele>
        <time>2011-08-15T08:58:59Z</time>
      </trkpt>
      <trkpt lat="48.43604" lon="-4.67141">
        <ele>83.349</ele>
        <time>2011-08-15T08:59:00Z</time>
      </trkpt>
      <trkpt lat="48.43617" lon="-4.67041">
        <ele>79.536</ele>
        <time>2011-08-15T08:59:07Z</time>
      </trkpt>
      <trkpt lat="48.43621" lon="-4.67011">
        <ele>78.92</ele>
        <time>2011-08-15T08:59:09Z</time>
      </trkpt>
      <trkpt lat="48.43631" lon="-4.66889">
        <ele>75.647</ele>
        <time>2011-08-15T08:59:17Z</time>
      </trkpt>
      <trkpt lat="48.43636" lon="-4.66829">
        <ele>73.061</ele>
        <time>2011-08-15T08:59:21Z</time>
      </trkpt>
      <trkpt lat="48.43633" lon="-4.66774">
        <ele>71.421</ele>
        <time>2011-08-15T08:59:24Z</time>
      </trkpt>
      <trkpt lat="48.43628" lon="-4.66674">
        <ele>67.973</ele>
        <time>2011-08-15T08:59:31Z</time>
      </trkpt>
      <trkpt lat="48.43628" lon="-4.66674">
        <ele>68.171</ele>
        <time>2011-08-15T08:59:32Z</time>
      </trkpt>
      <trkpt lat="48.43613" lon="-4.66313">
        <ele>66.999</ele>
        <time>2011-08-15T08:59:53Z</time>
      </trkpt>
      <trkpt lat="48.4361" lon="-4.66099">
        <ele>64.281</ele>
        <time>2011-08-15T09:00:08Z</time>
      </trkpt>
      <trkpt lat="48.4361" lon="-4.65999">
        <ele>61.098</ele>
        <time>2011-08-15T09:00:15Z</time>
      </trkpt>
      <trkpt lat="48.43613" lon="-4.65923">
        <ele>57.857</ele>
        <time>2011-08-15T09:00:20Z</time>
      </trkpt>
      <trkpt lat="48.43623" lon="-4.65828">
        <ele>53.98</ele>
        <time>2011-08-15T09:00:26Z</time>
      </trkpt>
      <trkpt lat="48.43632" lon="-4.65773">
        <ele>50.46</ele>
        <time>2011-08-15T09:00:30Z</time>
      </trkpt>
      <trkpt lat="48.4364" lon="-4.6571">
        <ele>48.464</ele>
        <time>2011-08-15T09:00:33Z</time>
      </trkpt>
      <trkpt lat="48.43646" lon="-4.65639">
        <ele>44.794</ele>
        <time>2011-08-15T09:00:37Z</time>
      </trkpt>
      <trkpt lat="48.43651" lon="-4.65568">
        <ele>41.498</ele>
        <time>2011-08-15T09:00:41Z</time>
      </trkpt>
      <trkpt lat="48.43653" lon="-4.65546">
        <ele>40.221</ele>
        <time>2011-08-15T09:00:44Z</time>
      </trkpt>
      <trkpt lat="48.43658" lon="-4.65456">
        <ele>37.006</ele>
        <time>2011-08-15T09:00:49Z</time>
      </trkpt>
      <trkpt lat="48.4366" lon="-4.6539">
        <ele>36.28</ele>
        <time>2011-08-15T09:00:51Z</time>
      </trkpt>
      <trkpt lat="48.43661" lon="-4.65354">
        <ele>35.175</ele>
        <time>2011-08-15T09:00:53Z</time>
      </trkpt>
      <trkpt lat="48.43665" lon="-4.65282">
        <ele>31.739</ele>
        <time>2011-08-15T09:00:57Z</time>
      </trkpt>
      <trkpt lat="48.43671" lon="-4.65209">
        <ele>28.321</ele>
        <time>2011-08-15T09:01:01Z</time>
      </trkpt>
      <trkpt lat="48.43672" lon="-4.6519">
        <ele>28.19</ele>
        <time>2011-08-15T09:01:02Z</time>
      </trkpt>
      <trkpt lat="48.43677" lon="-4.65134">
        <ele>26.524</ele>
        <time>2011-08-15T09:01:05Z</time>
      </trkpt>
      <trkpt lat="48.43692" lon="-4.64946">
        <ele>27.988</ele>
        <time>2011-08-15T09:01:17Z</time>
      </trkpt>
      <trkpt lat="48.43697" lon="-4.64884">
        <ele>31.093</ele>
        <time>2011-08-15T09:01:22Z</time>
      </trkpt>
      <trkpt lat="48.43699" lon="-4.64863">
        <ele>31.769</ele>
        <time>2011-08-15T09:01:24Z</time>
      </trkpt>
      <trkpt lat="48.437" lon="-4.64793">
        <ele>34.779</ele>
        <time>2011-08-15T09:01:32Z</time>
      </trkpt>
      <trkpt lat="48.43703" lon="-4.64756">
        <ele>36.809</ele>
        <time>2011-08-15T09:01:37Z</time>
      </trkpt>
      <trkpt lat="48.43705" lon="-4.6473">
        <ele>38.374</ele>
        <time>2011-08-15T09:01:41Z</time>
      </trkpt>
      <trkpt lat="48.43708" lon="-4.64678">
        <ele>40.306</ele>
        <time>2011-08-15T09:01:49Z</time>
      </trkpt>
      <trkpt lat="48.43737" lon="-4.64669">
        <ele>40.851</ele>
        <time>2011-08-15T09:01:56Z</time>
      </trkpt>
      <trkpt lat="48.43765" lon="-4.64673">
        <ele>39.999</ele>
        <time>2011-08-15T09:02:02Z</time>
      </trkpt>
      <trkpt lat="48.43793" lon="-4.64675">
        <ele>38.436</ele>
        <time>2011-08-15T09:02:07Z</time>
      </trkpt>
      <trkpt lat="48.43871" lon="-4.6465">
        <ele>35.259</ele>
        <time>2011-08-15T09:02:18Z</time>
      </trkpt>
      <trkpt lat="48.43931" lon="-4.64613">
        <ele>32.119</ele>
        <time>2011-08-15T09:02:26Z</time>
      </trkpt>
      <trkpt lat="48.43987" lon="-4.64574">
        <ele>29.82</ele>
        <time>2011-08-15T09:02:33Z</time>
      </trkpt>
      <trkpt lat="48.4401" lon="-4.64519">
        <ele>29.635</ele>
        <time>2011-08-15T09:02:40Z</time>
      </trkpt>
      <trkpt lat="48.44013" lon="-4.64342">
        <ele>27.933</ele>
        <time>2011-08-15T09:02:56Z</time>
      </trkpt>
      <trkpt lat="48.43989" lon="-4.64208">
        <ele>27.872</ele>
        <time>2011-08-15T09:03:08Z</time>
      </trkpt>
      <trkpt lat="48.43962" lon="-4.64019">
        <ele>27.755</ele>
        <time>2011-08-15T09:03:25Z</time>
      </trkpt>
      <trkpt lat="48.43927" lon="-4.63794">
        <ele>27.962</ele>
        <time>2011-08-15T09:03:46Z</time>
      </trkpt>
      <trkpt lat="48.43872" lon="-4.6363">
        <ele>28.631</ele>
        <time>2011-08-15T09:04:03Z</time>
      </trkpt>
      <trkpt lat="48.4384" lon="-4.63547">
        <ele>28.114</ele>
        <time>2011-08-15T09:04:12Z</time>
      </trkpt>
      <trkpt lat="48.43809" lon="-4.63456">
        <ele>29.103</ele>
        <time>2011-08-15T09:04:22Z</time>
      </trkpt>
      <trkpt lat="48.43803" lon="-4.63429">
        <ele>29.159</ele>
        <time>2011-08-15T09:04:25Z</time>
      </trkpt>
      <trkpt lat="48.43785" lon="-4.634">
        <ele>29.512</ele>
        <time>2011-08-15T09:04:29Z</time>
      </trkpt>
      <trkpt lat="48.43787" lon="-4.63358">
        <ele>29.381</ele>
        <time>2011-08-15T09:04:33Z</time>
      </trkpt>
      <trkpt lat="48.43778" lon="-4.63319">
        <ele>28.983</ele>
        <time>2011-08-15T09:04:37Z</time>
      </trkpt>
      <trkpt lat="48.43727" lon="-4.63107">
        <ele>28.432</ele>
        <time>2011-08-15T09:04:59Z</time>
      </trkpt>
      <trkpt lat="48.43666" lon="-4.62847">
        <ele>28.897</ele>
        <time>2011-08-15T09:05:24Z</time>
      </trkpt>
      <trkpt lat="48.43646" lon="-4.62748">
        <ele>30.228</ele>
        <time>2011-08-15T09:05:35Z</time>
      </trkpt>
      <trkpt lat="48.43651" lon="-4.62577">
        <ele>29.286</ele>
        <time>2011-08-15T09:05:52Z</time>
      </trkpt>
      <trkpt lat="48.43664" lon="-4.62343">
        <ele>28.731</ele>
        <time>2011-08-15T09:06:13Z</time>
      </trkpt>
      <trkpt lat="48.43626" lon="-4.62252">
        <ele>29.216</ele>
        <time>2011-08-15T09:06:24Z</time>
      </trkpt>
      <trkpt lat="48.43555" lon="-4.62198">
        <ele>29.404</ele>
        <time>2011-08-15T09:06:37Z</time>
      </trkpt>
      <trkpt lat="48.43477" lon="-4.62168">
        <ele>31.318</ele>
        <time>2011-08-15T09:06:53Z</time>
      </trkpt>
      <trkpt lat="48.43336" lon="-4.62074">
        <ele>31.55</ele>
        <time>2011-08-15T09:07:16Z</time>
      </trkpt>
      <trkpt lat="48.4326" lon="-4.61969">
        <ele>31.129</ele>
        <time>2011-08-15T09:07:31Z</time>
      </trkpt>
      <trkpt lat="48.43248" lon="-4.61924">
        <ele>32.032</ele>
        <time>2011-08-15T09:07:36Z</time>
      </trkpt>
      <trkpt lat="48.43214" lon="-4.61808">
        <ele>30.952</ele>
        <time>2011-08-15T09:07:49Z</time>
      </trkpt>
      <trkpt lat="48.4319" lon="-4.6175">
        <ele>31.601</ele>
        <time>2011-08-15T09:07:56Z</time>
      </trkpt>
      <trkpt lat="48.43174" lon="-4.61722">
        <ele>31.063</ele>
        <time>2011-08-15T09:08:00Z</time>
      </trkpt>
      <trkpt lat="48.4309" lon="-4.61596">
        <ele>30.744</ele>
        <time>2011-08-15T09:08:17Z</time>
      </trkpt>
      <trkpt lat="48.43002" lon="-4.61492">
        <ele>31.503</ele>
        <time>2011-08-15T09:08:33Z</time>
      </trkpt>
      <trkpt lat="48.42899" lon="-4.61435">
        <ele>31.631</ele>
        <time>2011-08-15T09:08:49Z</time>
      </trkpt>
      <trkpt lat="48.42875" lon="-4.61428">
        <ele>32.861</ele>
        <time>2011-08-15T09:08:53Z</time>
      </trkpt>
      <trkpt lat="48.42855" lon="-4.61443">
        <ele>33.11</ele>
        <time>2011-08-15T09:08:57Z</time>
      </trkpt>
      <trkpt lat="48.42834" lon="-4.61428">
        <ele>32.995</ele>
        <time>2011-08-15T09:09:00Z</time>
      </trkpt>
      <trkpt lat="48.42736" lon="-4.61454">
        <ele>33.442</ele>
        <time>2011-08-15T09:09:16Z</time>
      </trkpt>
      <trkpt lat="48.42685" lon="-4.6148">
        <ele>34.323</ele>
        <time>2011-08-15T09:09:25Z</time>
      </trkpt>
      <trkpt lat="48.42658" lon="-4.61512">
        <ele>35.306</ele>
        <time>2011-08-15T09:09:32Z</time>
      </trkpt>
      <trkpt lat="48.42642" lon="-4.61526">
        <ele>36.395</ele>
        <time>2011-08-15T09:09:36Z</time>
      </trkpt>
      <trkpt lat="48.42638" lon="-4.615">
        <ele>35.773</ele>
        <time>2011-08-15T09:09:39Z</time>
      </trkpt>
      <trkpt lat="48.42599" lon="-4.61372">
        <ele>35.01</ele>
        <time>2011-08-15T09:09:54Z</time>
      </trkpt>
      <trkpt lat="48.42601" lon="-4.61209">
        <ele>36.871</ele>
        <time>2011-08-15T09:10:11Z</time>
      </trkpt>
      <trkpt lat="48.4261" lon="-4.61093">
        <ele>35.971</ele>
        <time>2011-08-15T09:10:23Z</time>
      </trkpt>
      <trkpt lat="48.4261" lon="-4.61083">
        <ele>35.848</ele>
        <time>2011-08-15T09:10:26Z</time>
      </trkpt>
      <trkpt lat="48.42609" lon="-4.60994">
        <ele>33.088</ele>
        <time>2011-08-15T09:10:32Z</time>
      </trkpt>
      <trkpt lat="48.42592" lon="-4.60724">
        <ele>33.485</ele>
        <time>2011-08-15T09:10:56Z</time>
      </trkpt>
      <trkpt lat="48.42564" lon="-4.607">
        <ele>34.727</ele>
        <time>2011-08-15T09:11:02Z</time>
      </trkpt>
      <trkpt lat="48.42537" lon="-4.60688">
        <ele>35.207</ele>
        <time>2011-08-15T09:11:07Z</time>
      </trkpt>
      <trkpt lat="48.42534" lon="-4.60673">
        <ele>34.807</ele>
        <time>2011-08-15T09:11:09Z</time>
      </trkpt>
      <trkpt lat="48.425" lon="-4.6066">
        <ele>36.627</ele>
        <time>2011-08-15T09:11:14Z</time>
      </trkpt>
      <trkpt lat="48.42474" lon="-4.60661">
        <ele>38.688</ele>
        <time>2011-08-15T09:11:19Z</time>
      </trkpt>
      <trkpt lat="48.42435" lon="-4.60688">
        <ele>42.129</ele>
        <time>2011-08-15T09:11:29Z</time>
      </trkpt>
      <trkpt lat="48.4238" lon="-4.60737">
        <ele>45.659</ele>
        <time>2011-08-15T09:11:45Z</time>
      </trkpt>
      <trkpt lat="48.42307" lon="-4.60784">
        <ele>47.702</ele>
        <time>2011-08-15T09:12:03Z</time>
      </trkpt>
      <trkpt lat="48.42279" lon="-4.60801">
        <ele>48.836</ele>
        <time>2011-08-15T09:12:10Z</time>
      </trkpt>
      <trkpt lat="48.42259" lon="-4.60792">
        <ele>49.492</ele>
        <time>2011-08-15T09:12:16Z</time>
      </trkpt>
      <trkpt lat="48.42212" lon="-4.60702">
        <ele>50.54</ele>
        <time>2011-08-15T09:12:31Z</time>
      </trkpt>
      <trkpt lat="48.42156" lon="-4.60594">
        <ele>48.899</ele>
        <time>2011-08-15T09:12:48Z</time>
      </trkpt>
      <trkpt lat="48.42144" lon="-4.6057">
        <ele>47.68</ele>
        <time>2011-08-15T09:12:51Z</time>
      </trkpt>
      <trkpt lat="48.42122" lon="-4.60527">
        <ele>45.482</ele>
        <time>2011-08-15T09:12:56Z</time>
      </trkpt>
      <trkpt lat="48.42081" lon="-4.60448">
        <ele>42.393</ele>
        <time>2011-08-15T09:13:04Z</time>
      </trkpt>
      <trkpt lat="48.42001" lon="-4.60345">
        <ele>42.951</ele>
        <time>2011-08-15T09:13:18Z</time>
      </trkpt>
      <trkpt lat="48.41883" lon="-4.60249">
        <ele>44.478</ele>
        <time>2011-08-15T09:13:38Z</time>
      </trkpt>
      <trkpt lat="48.41797" lon="-4.60145">
        <ele>44.801</ele>
        <time>2011-08-15T09:13:55Z</time>
      </trkpt>
      <trkpt lat="48.4172" lon="-4.60039">
        <ele>45.631</ele>
        <time>2011-08-15T09:14:12Z</time>
      </trkpt>
      <trkpt lat="48.41642" lon="-4.59966">
        <ele>42.531</ele>
        <time>2011-08-15T09:14:25Z</time>
      </trkpt>
      <trkpt lat="48.41606" lon="-4.59937">
        <ele>39.048</ele>
        <time>2011-08-15T09:14:32Z</time>
      </trkpt>
      <trkpt lat="48.41548" lon="-4.5989">
        <ele>37.735</ele>
        <time>2011-08-15T09:14:37Z</time>
      </trkpt>
      <trkpt lat="48.41402" lon="-4.59774">
        <ele>37.117</ele>
        <time>2011-08-15T09:14:57Z</time>
      </trkpt>
      <trkpt lat="48.41273" lon="-4.59671">
        <ele>37.107</ele>
        <time>2011-08-15T09:15:17Z</time>
      </trkpt>
      <trkpt lat="48.41254" lon="-4.59657">
        <ele>37.418</ele>
        <time>2011-08-15T09:15:20Z</time>
      </trkpt>
      <trkpt lat="48.41211" lon="-4.59627">
        <ele>38.271</ele>
        <time>2011-08-15T09:15:28Z</time>
      </trkpt>
      <trkpt lat="48.41182" lon="-4.59607">
        <ele>38.695</ele>
        <time>2011-08-15T09:15:33Z</time>
      </trkpt>
      <trkpt lat="48.41134" lon="-4.59574">
        <ele>38.606</ele>
        <time>2011-08-15T09:15:42Z</time>
      </trkpt>
      <trkpt lat="48.41096" lon="-4.59545">
        <ele>36.257</ele>
        <time>2011-08-15T09:15:47Z</time>
      </trkpt>
      <trkpt lat="48.41005" lon="-4.59451">
        <ele>34.554</ele>
        <time>2011-08-15T09:16:02Z</time>
      </trkpt>
      <trkpt lat="48.40889" lon="-4.5939">
        <ele>34.861</ele>
        <time>2011-08-15T09:16:20Z</time>
      </trkpt>
      <trkpt lat="48.40846" lon="-4.59367">
        <ele>36.158</ele>
        <time>2011-08-15T09:16:27Z</time>
      </trkpt>
      <trkpt lat="48.4083" lon="-4.59353">
        <ele>37.056</ele>
        <time>2011-08-15T09:16:30Z</time>
      </trkpt>
      <trkpt lat="48.40782" lon="-4.59288">
        <ele>40.184</ele>
        <time>2011-08-15T09:16:42Z</time>
      </trkpt>
      <trkpt lat="48.40775" lon="-4.59274">
        <ele>40.733</ele>
        <time>2011-08-15T09:16:44Z</time>
      </trkpt>
      <trkpt lat="48.40759" lon="-4.59244">
        <ele>42.055</ele>
        <time>2011-08-15T09:16:49Z</time>
      </trkpt>
      <trkpt lat="48.40738" lon="-4.59231">
        <ele>43.529</ele>
        <time>2011-08-15T09:16:54Z</time>
      </trkpt>
      <trkpt lat="48.40668" lon="-4.59187">
        <ele>43.021</ele>
        <time>2011-08-15T09:17:09Z</time>
      </trkpt>
      <trkpt lat="48.40627" lon="-4.59148">
        <ele>39.667</ele>
        <time>2011-08-15T09:17:16Z</time>
      </trkpt>
      <trkpt lat="48.4058" lon="-4.59137">
        <ele>37.698</ele>
        <time>2011-08-15T09:17:22Z</time>
      </trkpt>
      <trkpt lat="48.40509" lon="-4.59197">
        <ele>39.433</ele>
        <time>2011-08-15T09:17:33Z</time>
      </trkpt>
      <trkpt lat="48.40487" lon="-4.59239">
        <ele>40.164</ele>
        <time>2011-08-15T09:17:38Z</time>
      </trkpt>
      <trkpt lat="48.40465" lon="-4.59379">
        <ele>42.617</ele>
        <time>2011-08-15T09:17:53Z</time>
      </trkpt>
      <trkpt lat="48.40465" lon="-4.59387">
        <ele>42.617</ele>
        <time>2011-08-15T09:17:57Z</time>
      </trkpt>
      <trkpt lat="48.40468" lon="-4.59474">
        <ele>43.914</ele>
        <time>2011-08-15T09:18:04Z</time>
      </trkpt>
      <trkpt lat="48.40454" lon="-4.59582">
        <ele>46.718</ele>
        <time>2011-08-15T09:18:19Z</time>
      </trkpt>
      <trkpt lat="48.40427" lon="-4.59648">
        <ele>48.448</ele>
        <time>2011-08-15T09:18:29Z</time>
      </trkpt>
      <trkpt lat="48.40412" lon="-4.59686">
        <ele>50.533</ele>
        <time>2011-08-15T09:18:35Z</time>
      </trkpt>
      <trkpt lat="48.40377" lon="-4.59767">
        <ele>53.584</ele>
        <time>2011-08-15T09:18:49Z</time>
      </trkpt>
      <trkpt lat="48.40339" lon="-4.59847">
        <ele>56.698</ele>
        <time>2011-08-15T09:19:03Z</time>
      </trkpt>
      <trkpt lat="48.40278" lon="-4.59958">
        <ele>56.263</ele>
        <time>2011-08-15T09:19:23Z</time>
      </trkpt>
      <trkpt lat="48.40204" lon="-4.6007">
        <ele>55.004</ele>
        <time>2011-08-15T09:19:40Z</time>
      </trkpt>
      <trkpt lat="48.40127" lon="-4.60107">
        <ele>54.86</ele>
        <time>2011-08-15T09:19:53Z</time>
      </trkpt>
      <trkpt lat="48.40018" lon="-4.60106">
        <ele>54.571</ele>
        <time>2011-08-15T09:20:11Z</time>
      </trkpt>
      <trkpt lat="48.39933" lon="-4.60094">
        <ele>51.146</ele>
        <time>2011-08-15T09:20:23Z</time>
      </trkpt>
      <trkpt lat="48.39899" lon="-4.6008">
        <ele>48.008</ele>
        <time>2011-08-15T09:20:27Z</time>
      </trkpt>
      <trkpt lat="48.3989" lon="-4.60076">
        <ele>47.45</ele>
        <time>2011-08-15T09:20:28Z</time>
      </trkpt>
      <trkpt lat="48.39814" lon="-4.60009">
        <ele>46.808</ele>
        <time>2011-08-15T09:20:38Z</time>
      </trkpt>
      <trkpt lat="48.39798" lon="-4.59971">
        <ele>47.592</ele>
        <time>2011-08-15T09:20:42Z</time>
      </trkpt>
      <trkpt lat="48.39791" lon="-4.59952">
        <ele>48.245</ele>
        <time>2011-08-15T09:20:44Z</time>
      </trkpt>
      <trkpt lat="48.39763" lon="-4.59914">
        <ele>49.719</ele>
        <time>2011-08-15T09:20:50Z</time>
      </trkpt>
      <trkpt lat="48.39753" lon="-4.59906">
        <ele>50.197</ele>
        <time>2011-08-15T09:20:52Z</time>
      </trkpt>
      <trkpt lat="48.39739" lon="-4.59896">
        <ele>51.397</ele>
        <time>2011-08-15T09:20:55Z</time>
      </trkpt>
      <trkpt lat="48.39731" lon="-4.59889">
        <ele>52.157</ele>
        <time>2011-08-15T09:20:57Z</time>
      </trkpt>
      <trkpt lat="48.39705" lon="-4.59875">
        <ele>53.235</ele>
        <time>2011-08-15T09:21:03Z</time>
      </trkpt>
      <trkpt lat="48.39674" lon="-4.59857">
        <ele>54.663</ele>
        <time>2011-08-15T09:21:10Z</time>
      </trkpt>
      <trkpt lat="48.39638" lon="-4.59837">
        <ele>56.619</ele>
        <time>2011-08-15T09:21:18Z</time>
      </trkpt>
      <trkpt lat="48.39616" lon="-4.59832">
        <ele>58.21</ele>
        <time>2011-08-15T09:21:23Z</time>
      </trkpt>
      <trkpt lat="48.39536" lon="-4.59814">
        <ele>60.999</ele>
        <time>2011-08-15T09:21:40Z</time>
      </trkpt>
      <trkpt lat="48.39521" lon="-4.59811">
        <ele>61.606</ele>
        <time>2011-08-15T09:21:43Z</time>
      </trkpt>
      <trkpt lat="48.3948" lon="-4.59799">
        <ele>62.947</ele>
        <time>2011-08-15T09:21:50Z</time>
      </trkpt>
      <trkpt lat="48.39444" lon="-4.59781">
        <ele>64.786</ele>
        <time>2011-08-15T09:21:58Z</time>
      </trkpt>
      <trkpt lat="48.39367" lon="-4.59741">
        <ele>66.634</ele>
        <time>2011-08-15T09:22:14Z</time>
      </trkpt>
      <trkpt lat="48.39336" lon="-4.59718">
        <ele>66.845</ele>
        <time>2011-08-15T09:22:21Z</time>
      </trkpt>
      <trkpt lat="48.39274" lon="-4.59678">
        <ele>63.457</ele>
        <time>2011-08-15T09:22:32Z</time>
      </trkpt>
      <trkpt lat="48.3921" lon="-4.59645">
        <ele>59.715</ele>
        <time>2011-08-15T09:22:41Z</time>
      </trkpt>
      <trkpt lat="48.39163" lon="-4.59608">
        <ele>56.399</ele>
        <time>2011-08-15T09:22:47Z</time>
      </trkpt>
      <trkpt lat="48.39055" lon="-4.59545">
        <ele>57.231</ele>
        <time>2011-08-15T09:23:01Z</time>
      </trkpt>
      <trkpt lat="48.39009" lon="-4.59536">
        <ele>59.646</ele>
        <time>2011-08-15T09:23:08Z</time>
      </trkpt>
      <trkpt lat="48.38958" lon="-4.59525">
        <ele>63.036</ele>
        <time>2011-08-15T09:23:18Z</time>
      </trkpt>
      <trkpt lat="48.38919" lon="-4.59511">
        <ele>66.224</ele>
        <time>2011-08-15T09:23:27Z</time>
      </trkpt>
      <trkpt lat="48.38874" lon="-4.59477">
        <ele>67.853</ele>
        <time>2011-08-15T09:23:37Z</time>
      </trkpt>
      <trkpt lat="48.38787" lon="-4.59404">
        <ele>69.309</ele>
        <time>2011-08-15T09:23:56Z</time>
      </trkpt>
      <trkpt lat="48.38772" lon="-4.59391">
        <ele>69.172</ele>
        <time>2011-08-15T09:23:59Z</time>
      </trkpt>
      <trkpt lat="48.38711" lon="-4.59333">
        <ele>69.226</ele>
        <time>2011-08-15T09:24:11Z</time>
      </trkpt>
      <trkpt lat="48.38664" lon="-4.59286">
        <ele>69.977</ele>
        <time>2011-08-15T09:24:21Z</time>
      </trkpt>
      <trkpt lat="48.38655" lon="-4.59275">
        <ele>69.699</ele>
        <time>2011-08-15T09:24:23Z</time>
      </trkpt>
      <trkpt lat="48.38645" lon="-4.59262">
        <ele>68.757</ele>
        <time>2011-08-15T09:24:25Z</time>
      </trkpt>
      <trkpt lat="48.38633" lon="-4.59214">
        <ele>66.647</ele>
        <time>2011-08-15T09:24:30Z</time>
      </trkpt>
      <trkpt lat="48.38627" lon="-4.59153">
        <ele>61.948</ele>
        <time>2011-08-15T09:24:35Z</time>
      </trkpt>
      <trkpt lat="48.38623" lon="-4.5911">
        <ele>59.569</ele>
        <time>2011-08-15T09:24:38Z</time>
      </trkpt>
      <trkpt lat="48.3862" lon="-4.5908">
        <ele>58.801</ele>
        <time>2011-08-15T09:24:40Z</time>
      </trkpt>
      <trkpt lat="48.38603" lon="-4.59018">
        <ele>54.458</ele>
        <time>2011-08-15T09:24:44Z</time>
      </trkpt>
      <trkpt lat="48.38574" lon="-4.58943">
        <ele>50.291</ele>
        <time>2011-08-15T09:24:49Z</time>
      </trkpt>
      <trkpt lat="48.38569" lon="-4.5893">
        <ele>50.124</ele>
        <time>2011-08-15T09:24:50Z</time>
      </trkpt>
      <trkpt lat="48.38547" lon="-4.58872">
        <ele>49.145</ele>
        <time>2011-08-15T09:24:54Z</time>
      </trkpt>
      <trkpt lat="48.38523" lon="-4.58826">
        <ele>48.559</ele>
        <time>2011-08-15T09:24:58Z</time>
      </trkpt>
      <trkpt lat="48.38422" lon="-4.58688">
        <ele>47.143</ele>
        <time>2011-08-15T09:25:16Z</time>
      </trkpt>
      <trkpt lat="48.38337" lon="-4.58521">
        <ele>48.339</ele>
        <time>2011-08-15T09:25:31Z</time>
      </trkpt>
      <trkpt lat="48.38261" lon="-4.58371">
        <ele>49.607</ele>
        <time>2011-08-15T09:25:49Z</time>
      </trkpt>
      <trkpt lat="48.3821" lon="-4.5817">
        <ele>52.432</ele>
        <time>2011-08-15T09:26:10Z</time>
      </trkpt>
      <trkpt lat="48.38183" lon="-4.58061">
        <ele>52.637</ele>
        <time>2011-08-15T09:26:22Z</time>
      </trkpt>
      <trkpt lat="48.38155" lon="-4.57951">
        <ele>56.032</ele>
        <time>2011-08-15T09:26:36Z</time>
      </trkpt>
      <trkpt lat="48.38147" lon="-4.57916">
        <ele>57.787</ele>
        <time>2011-08-15T09:26:41Z</time>
      </trkpt>
      <trkpt lat="48.38127" lon="-4.57812">
        <ele>61.216</ele>
        <time>2011-08-15T09:26:58Z</time>
      </trkpt>
      <trkpt lat="48.38113" lon="-4.57733">
        <ele>64.505</ele>
        <time>2011-08-15T09:27:14Z</time>
      </trkpt>
      <trkpt lat="48.381" lon="-4.57662">
        <ele>67.759</ele>
        <time>2011-08-15T09:27:31Z</time>
      </trkpt>
      <trkpt lat="48.38065" lon="-4.57625">
        <ele>70.189</ele>
        <time>2011-08-15T09:27:43Z</time>
      </trkpt>
      <trkpt lat="48.37983" lon="-4.57662">
        <ele>72.379</ele>
        <time>2011-08-15T09:28:03Z</time>
      </trkpt>
      <trkpt lat="48.37883" lon="-4.5774">
        <ele>73.79</ele>
        <time>2011-08-15T09:28:26Z</time>
      </trkpt>
      <trkpt lat="48.37818" lon="-4.57818">
        <ele>76.804</ele>
        <time>2011-08-15T09:28:43Z</time>
      </trkpt>
      <trkpt lat="48.37769" lon="-4.57874">
        <ele>80.178</ele>
        <time>2011-08-15T09:28:58Z</time>
      </trkpt>
      <trkpt lat="48.37732" lon="-4.57917">
        <ele>83.633</ele>
        <time>2011-08-15T09:29:11Z</time>
      </trkpt>
      <trkpt lat="48.37697" lon="-4.57947">
        <ele>86.634</ele>
        <time>2011-08-15T09:29:22Z</time>
      </trkpt>
      <trkpt lat="48.37647" lon="-4.5798">
        <ele>89.151</ele>
        <time>2011-08-15T09:29:37Z</time>
      </trkpt>
      <trkpt lat="48.3759" lon="-4.58003">
        <ele>89.578</ele>
        <time>2011-08-15T09:29:56Z</time>
      </trkpt>
      <trkpt lat="48.37577" lon="-4.5801">
        <ele>90.058</ele>
        <time>2011-08-15T09:30:00Z</time>
      </trkpt>
      <trkpt lat="48.37553" lon="-4.58018">
        <ele>89.734</ele>
        <time>2011-08-15T09:30:06Z</time>
      </trkpt>
      <trkpt lat="48.37544" lon="-4.57993">
        <ele>89.537</ele>
        <time>2011-08-15T09:30:10Z</time>
      </trkpt>
      <trkpt lat="48.3749" lon="-4.57913">
        <ele>87.863</ele>
        <time>2011-08-15T09:30:23Z</time>
      </trkpt>
      <trkpt lat="48.37475" lon="-4.57896">
        <ele>88.064</ele>
        <time>2011-08-15T09:30:26Z</time>
      </trkpt>
      <trkpt lat="48.3747" lon="-4.57835">
        <ele>88.747</ele>
        <time>2011-08-15T09:30:33Z</time>
      </trkpt>
      <trkpt lat="48.37509" lon="-4.57701">
        <ele>88.864</ele>
        <time>2011-08-15T09:30:46Z</time>
      </trkpt>
      <trkpt lat="48.37557" lon="-4.57544">
        <ele>88.948</ele>
        <time>2011-08-15T09:31:03Z</time>
      </trkpt>
      <trkpt lat="48.37562" lon="-4.57502">
        <ele>88.64</ele>
        <time>2011-08-15T09:31:07Z</time>
      </trkpt>
      <trkpt lat="48.37546" lon="-4.57453">
        <ele>88.274</ele>
        <time>2011-08-15T09:31:13Z</time>
      </trkpt>
      <trkpt lat="48.3747" lon="-4.57412">
        <ele>84.524</ele>
        <time>2011-08-15T09:31:24Z</time>
      </trkpt>
      <trkpt lat="48.37441" lon="-4.57395">
        <ele>81.954</ele>
        <time>2011-08-15T09:31:28Z</time>
      </trkpt>
      <trkpt lat="48.37413" lon="-4.57379">
        <ele>80.498</ele>
        <time>2011-08-15T09:31:32Z</time>
      </trkpt>
      <trkpt lat="48.37386" lon="-4.57365">
        <ele>77.893</ele>
        <time>2011-08-15T09:31:37Z</time>
      </trkpt>
      <trkpt lat="48.37395" lon="-4.57121">
        <ele>79.309</ele>
        <time>2011-08-15T09:31:57Z</time>
      </trkpt>
      <trkpt lat="48.37399" lon="-4.57063">
        <ele>81.716</ele>
        <time>2011-08-15T09:32:03Z</time>
      </trkpt>
      <trkpt lat="48.37402" lon="-4.56926">
        <ele>82.41</ele>
        <time>2011-08-15T09:32:18Z</time>
      </trkpt>
      <trkpt lat="48.374" lon="-4.56879">
        <ele>82.03</ele>
        <time>2011-08-15T09:32:23Z</time>
      </trkpt>
      <trkpt lat="48.37403" lon="-4.56821">
        <ele>82.925</ele>
        <time>2011-08-15T09:32:32Z</time>
      </trkpt>
      <trkpt lat="48.37405" lon="-4.56793">
        <ele>83.155</ele>
        <time>2011-08-15T09:32:36Z</time>
      </trkpt>
      <trkpt lat="48.3743" lon="-4.56632">
        <ele>84.014</ele>
        <time>2011-08-15T09:32:54Z</time>
      </trkpt>
      <trkpt lat="48.37458" lon="-4.56478">
        <ele>84.994</ele>
        <time>2011-08-15T09:33:12Z</time>
      </trkpt>
      <trkpt lat="48.37461" lon="-4.56452">
        <ele>85.276</ele>
        <time>2011-08-15T09:33:16Z</time>
      </trkpt>
      <trkpt lat="48.37457" lon="-4.56381">
        <ele>84.612</ele>
        <time>2011-08-15T09:33:24Z</time>
      </trkpt>
      <trkpt lat="48.37434" lon="-4.56246">
        <ele>85.159</ele>
        <time>2011-08-15T09:33:38Z</time>
      </trkpt>
      <trkpt lat="48.37406" lon="-4.56093">
        <ele>86.017</ele>
        <time>2011-08-15T09:33:54Z</time>
      </trkpt>
      <trkpt lat="48.37396" lon="-4.56004">
        <ele>86.794</ele>
        <time>2011-08-15T09:34:04Z</time>
      </trkpt>
      <trkpt lat="48.37382" lon="-4.55976">
        <ele>87.412</ele>
        <time>2011-08-15T09:34:06Z</time>
      </trkpt>
      <trkpt lat="48.37396" lon="-4.55931">
        <ele>88.011</ele>
        <time>2011-08-15T09:34:12Z</time>
      </trkpt>
      <trkpt lat="48.37426" lon="-4.55851">
        <ele>88.051</ele>
        <time>2011-08-15T09:34:23Z</time>
      </trkpt>
      <trkpt lat="48.37444" lon="-4.55803">
        <ele>87.781</ele>
        <time>2011-08-15T09:34:29Z</time>
      </trkpt>
      <trkpt lat="48.37452" lon="-4.55782">
        <ele>86.961</ele>
        <time>2011-08-15T09:34:36Z</time>
      </trkpt>
      <trkpt lat="48.37467" lon="-4.55732">
        <ele>87.089</ele>
        <time>2011-08-15T09:34:38Z</time>
      </trkpt>
      <trkpt lat="48.3748" lon="-4.55697">
        <ele>87.828</ele>
        <time>2011-08-15T09:34:44Z</time>
      </trkpt>
      <trkpt lat="48.37488" lon="-4.55705">
        <ele>88.651</ele>
        <time>2011-08-15T09:34:49Z</time>
      </trkpt>
      <trkpt lat="48.37484" lon="-4.55697">
        <ele>88.469</ele>
        <time>2011-08-15T09:34:54Z</time>
      </trkpt>
      <trkpt lat="48.37511" lon="-4.55621">
        <ele>86.027</ele>
        <time>2011-08-15T09:35:07Z</time>
      </trkpt>
      <trkpt lat="48.37518" lon="-4.55602">
        <ele>85.503</ele>
        <time>2011-08-15T09:35:09Z</time>
      </trkpt>
      <trkpt lat="48.37533" lon="-4.55565">
        <ele>85.091</ele>
        <time>2011-08-15T09:35:13Z</time>
      </trkpt>
      <trkpt lat="48.37587" lon="-4.5543">
        <ele>81.613</ele>
        <time>2011-08-15T09:35:26Z</time>
      </trkpt>
      <trkpt lat="48.37605" lon="-4.55386">
        <ele>81.531</ele>
        <time>2011-08-15T09:35:30Z</time>
      </trkpt>
      <trkpt lat="48.37661" lon="-4.55199">
        <ele>80.058</ele>
        <time>2011-08-15T09:35:47Z</time>
      </trkpt>
      <trkpt lat="48.37675" lon="-4.55079">
        <ele>79.895</ele>
        <time>2011-08-15T09:35:59Z</time>
      </trkpt>
      <trkpt lat="48.37685" lon="-4.5483">
        <ele>79.235</ele>
        <time>2011-08-15T09:36:18Z</time>
      </trkpt>
      <trkpt lat="48.37725" lon="-4.54673">
        <ele>80.542</ele>
        <time>2011-08-15T09:36:32Z</time>
      </trkpt>
      <trkpt lat="48.37784" lon="-4.54533">
        <ele>83.834</ele>
        <time>2011-08-15T09:36:48Z</time>
      </trkpt>
      <trkpt lat="48.37791" lon="-4.54516">
        <ele>84.44</ele>
        <time>2011-08-15T09:36:52Z</time>
      </trkpt>
      <trkpt lat="48.37855" lon="-4.54491">
        <ele>84.351</ele>
        <time>2011-08-15T09:36:54Z</time>
      </trkpt>
      <trkpt lat="48.37834" lon="-4.54538">
        <ele>86.2</ele>
        <time>2011-08-15T09:37:02Z</time>
      </trkpt>
      <trkpt lat="48.37847" lon="-4.54525">
        <ele>86.454</ele>
        <time>2011-08-15T09:37:06Z</time>
      </trkpt>
      <trkpt lat="48.37847" lon="-4.54525">
        <ele>86.593</ele>
        <time>2011-08-15T09:37:08Z</time>
      </trkpt>
      <trkpt lat="48.37791" lon="-4.54461">
        <ele>86.716</ele>
        <time>2011-08-15T09:37:13Z</time>
      </trkpt>
      <trkpt lat="48.37804" lon="-4.54448">
        <ele>86.771</ele>
        <time>2011-08-15T09:37:19Z</time>
      </trkpt>
      <trkpt lat="48.37805" lon="-4.54448">
        <ele>86.782</ele>
        <time>2011-08-15T09:37:21Z</time>
      </trkpt>
      <trkpt lat="48.37841" lon="-4.54431">
        <ele>86.745</ele>
        <time>2011-08-15T09:37:25Z</time>
      </trkpt>
      <trkpt lat="48.37835" lon="-4.54448">
        <ele>86.817</ele>
        <time>2011-08-15T09:37:31Z</time>
      </trkpt>
      <trkpt lat="48.37864" lon="-4.54407">
        <ele>88.457</ele>
        <time>2011-08-15T09:37:34Z</time>
      </trkpt>
      <trkpt lat="48.37872" lon="-4.54398">
        <ele>88.618</ele>
        <time>2011-08-15T09:37:36Z</time>
      </trkpt>
      <trkpt lat="48.3789" lon="-4.54381">
        <ele>89.26</ele>
        <time>2011-08-15T09:37:41Z</time>
      </trkpt>
      <trkpt lat="48.37903" lon="-4.54375">
        <ele>89.37</ele>
        <time>2011-08-15T09:37:44Z</time>
      </trkpt>
      <trkpt lat="48.37963" lon="-4.54185">
        <ele>90.163</ele>
        <time>2011-08-15T09:38:06Z</time>
      </trkpt>
      <trkpt lat="48.37965" lon="-4.54176">
        <ele>90.386</ele>
        <time>2011-08-15T09:38:07Z</time>
      </trkpt>
      <trkpt lat="48.37974" lon="-4.54139">
        <ele>90.943</ele>
        <time>2011-08-15T09:38:11Z</time>
      </trkpt>
      <trkpt lat="48.37972" lon="-4.5387">
        <ele>91.029</ele>
        <time>2011-08-15T09:38:38Z</time>
      </trkpt>
      <trkpt lat="48.37965" lon="-4.53713">
        <ele>87.937</ele>
        <time>2011-08-15T09:38:52Z</time>
      </trkpt>
      <trkpt lat="48.37961" lon="-4.53585">
        <ele>87.258</ele>
        <time>2011-08-15T09:39:04Z</time>
      </trkpt>
      <trkpt lat="48.3799" lon="-4.53584">
        <ele>86.867</ele>
        <time>2011-08-15T09:39:11Z</time>
      </trkpt>
      <trkpt lat="48.37999" lon="-4.53587">
        <ele>88.036</ele>
        <time>2011-08-15T09:39:13Z</time>
      </trkpt>
      <trkpt lat="48.38014" lon="-4.53594">
        <ele>88.936</ele>
        <time>2011-08-15T09:39:16Z</time>
      </trkpt>
      <trkpt lat="48.38014" lon="-4.53594">
        <ele>89.658</ele>
        <time>2011-08-15T09:39:19Z</time>
      </trkpt>
      <trkpt lat="48.38131" lon="-4.53605">
        <ele>91.332</ele>
        <time>2011-08-15T09:39:34Z</time>
      </trkpt>
      <trkpt lat="48.38157" lon="-4.53607">
        <ele>91.913</ele>
        <time>2011-08-15T09:39:38Z</time>
      </trkpt>
      <trkpt lat="48.3825" lon="-4.53615">
        <ele>93.818</ele>
        <time>2011-08-15T09:39:54Z</time>
      </trkpt>
      <trkpt lat="48.38307" lon="-4.5363">
        <ele>94.436</ele>
        <time>2011-08-15T09:40:06Z</time>
      </trkpt>
      <trkpt lat="48.38318" lon="-4.53601">
        <ele>94.594</ele>
        <time>2011-08-15T09:40:12Z</time>
      </trkpt>
      <trkpt lat="48.38322" lon="-4.5357">
        <ele>93.334</ele>
        <time>2011-08-15T09:40:15Z</time>
      </trkpt>
      <trkpt lat="48.38323" lon="-4.53414">
        <ele>93.638</ele>
        <time>2011-08-15T09:40:29Z</time>
      </trkpt>
      <trkpt lat="48.38323" lon="-4.53403">
        <ele>93.732</ele>
        <time>2011-08-15T09:40:30Z</time>
      </trkpt>
      <trkpt lat="48.38323" lon="-4.53314">
        <ele>93.382</ele>
        <time>2011-08-15T09:40:38Z</time>
      </trkpt>
      <trkpt lat="48.38323" lon="-4.53282">
        <ele>93.506</ele>
        <time>2011-08-15T09:40:41Z</time>
      </trkpt>
      <trkpt lat="48.38323" lon="-4.53227">
        <ele>93.554</ele>
        <time>2011-08-15T09:40:46Z</time>
      </trkpt>
      <trkpt lat="48.38323" lon="-4.53194">
        <ele>93.66</ele>
        <time>2011-08-15T09:40:49Z</time>
      </trkpt>
      <trkpt lat="48.38323" lon="-4.53162">
        <ele>93.901</ele>
        <time>2011-08-15T09:40:52Z</time>
      </trkpt>
      <trkpt lat="48.38302" lon="-4.53113">
        <ele>94.77</ele>
        <time>2011-08-15T09:40:59Z</time>
      </trkpt>
      <trkpt lat="48.38302" lon="-4.53044">
        <ele>95.135</ele>
        <time>2011-08-15T09:41:05Z</time>
      </trkpt>
      <trkpt lat="48.38306" lon="-4.5285">
        <ele>96.21</ele>
        <time>2011-08-15T09:41:23Z</time>
      </trkpt>
      <trkpt lat="48.3831" lon="-4.52762">
        <ele>96.455</ele>
        <time>2011-08-15T09:41:34Z</time>
      </trkpt>
      <trkpt lat="48.38316" lon="-4.52692">
        <ele>93.614</ele>
        <time>2011-08-15T09:41:42Z</time>
      </trkpt>
      <trkpt lat="48.38329" lon="-4.52559">
        <ele>90.442</ele>
        <time>2011-08-15T09:41:53Z</time>
      </trkpt>
      <trkpt lat="48.3835" lon="-4.52434">
        <ele>86.732</ele>
        <time>2011-08-15T09:42:03Z</time>
      </trkpt>
      <trkpt lat="48.38353" lon="-4.52422">
        <ele>86.558</ele>
        <time>2011-08-15T09:42:04Z</time>
      </trkpt>
      <trkpt lat="48.38358" lon="-4.52398">
        <ele>85.99</ele>
        <time>2011-08-15T09:42:06Z</time>
      </trkpt>
      <trkpt lat="48.38343" lon="-4.52372">
        <ele>84.982</ele>
        <time>2011-08-15T09:42:10Z</time>
      </trkpt>
      <trkpt lat="48.38331" lon="-4.52347">
        <ele>86.235</ele>
        <time>2011-08-15T09:42:15Z</time>
      </trkpt>
      <trkpt lat="48.38351" lon="-4.52247">
        <ele>89.531</ele>
        <time>2011-08-15T09:42:28Z</time>
      </trkpt>
      <trkpt lat="48.38358" lon="-4.52212">
        <ele>89.79</ele>
        <time>2011-08-15T09:42:32Z</time>
      </trkpt>
      <trkpt lat="48.38364" lon="-4.52183">
        <ele>90.012</ele>
        <time>2011-08-15T09:42:35Z</time>
      </trkpt>
      <trkpt lat="48.384" lon="-4.51998">
        <ele>89.019</ele>
        <time>2011-08-15T09:42:54Z</time>
      </trkpt>
      <trkpt lat="48.38403" lon="-4.51979">
        <ele>89.421</ele>
        <time>2011-08-15T09:42:56Z</time>
      </trkpt>
      <trkpt lat="48.38388" lon="-4.51971">
        <ele>87.486</ele>
        <time>2011-08-15T09:43:01Z</time>
      </trkpt>
      <trkpt lat="48.38368" lon="-4.51977">
        <ele>85.956</ele>
        <time>2011-08-15T09:43:04Z</time>
      </trkpt>
      <trkpt lat="48.38353" lon="-4.5198">
        <ele>84.634</ele>
        <time>2011-08-15T09:43:06Z</time>
      </trkpt>
      <trkpt lat="48.38338" lon="-4.51984">
        <ele>83.469</ele>
        <time>2011-08-15T09:43:08Z</time>
      </trkpt>
      <trkpt lat="48.38308" lon="-4.51991">
        <ele>83.756</ele>
        <time>2011-08-15T09:43:16Z</time>
      </trkpt>
      <trkpt lat="48.38308" lon="-4.51991">
        <ele>83.732</ele>
        <time>2011-08-15T09:43:24Z</time>
      </trkpt>
      <trkpt lat="48.38304" lon="-4.51948">
        <ele>83.508</ele>
        <time>2011-08-15T09:43:29Z</time>
      </trkpt>
      <trkpt lat="48.38305" lon="-4.51941">
        <ele>83.152</ele>
        <time>2011-08-15T09:43:31Z</time>
      </trkpt>
      <trkpt lat="48.38272" lon="-4.51929">
        <ele>82.338</ele>
        <time>2011-08-15T09:43:40Z</time>
      </trkpt>
      <trkpt lat="48.38234" lon="-4.5194">
        <ele>78.326</ele>
        <time>2011-08-15T09:43:45Z</time>
      </trkpt>
      <trkpt lat="48.3822" lon="-4.51944">
        <ele>77.906</ele>
        <time>2011-08-15T09:43:47Z</time>
      </trkpt>
      <trkpt lat="48.38205" lon="-4.51919">
        <ele>75.549</ele>
        <time>2011-08-15T09:43:51Z</time>
      </trkpt>
      <trkpt lat="48.38192" lon="-4.51863">
        <ele>72.066</ele>
        <time>2011-08-15T09:43:56Z</time>
      </trkpt>
      <trkpt lat="48.38177" lon="-4.51795">
        <ele>68.353</ele>
        <time>2011-08-15T09:44:01Z</time>
      </trkpt>
      <trkpt lat="48.38167" lon="-4.51751">
        <ele>64.827</ele>
        <time>2011-08-15T09:44:04Z</time>
      </trkpt>
      <trkpt lat="48.38163" lon="-4.51736">
        <ele>64.394</ele>
        <time>2011-08-15T09:44:05Z</time>
      </trkpt>
      <trkpt lat="48.3814" lon="-4.51578">
        <ele>62.843</ele>
        <time>2011-08-15T09:44:16Z</time>
      </trkpt>
      <trkpt lat="48.38138" lon="-4.51564">
        <ele>62.878</ele>
        <time>2011-08-15T09:44:17Z</time>
      </trkpt>
      <trkpt lat="48.38134" lon="-4.51409">
        <ele>59.743</ele>
        <time>2011-08-15T09:44:28Z</time>
      </trkpt>
      <trkpt lat="48.38134" lon="-4.51379">
        <ele>58.171</ele>
        <time>2011-08-15T09:44:30Z</time>
      </trkpt>
      <trkpt lat="48.38139" lon="-4.51192">
        <ele>58.662</ele>
        <time>2011-08-15T09:44:43Z</time>
      </trkpt>
      <trkpt lat="48.38139" lon="-4.51118">
        <ele>61.515</ele>
        <time>2011-08-15T09:44:50Z</time>
      </trkpt>
      <trkpt lat="48.38134" lon="-4.51079">
        <ele>62.155</ele>
        <time>2011-08-15T09:44:55Z</time>
      </trkpt>
      <trkpt lat="48.38134" lon="-4.51079">
        <ele>62.439</ele>
        <time>2011-08-15T09:44:59Z</time>
      </trkpt>
      <trkpt lat="48.38122" lon="-4.50996">
        <ele>61.728</ele>
        <time>2011-08-15T09:45:05Z</time>
      </trkpt>
      <trkpt lat="48.38154" lon="-4.50913">
        <ele>61.25</ele>
        <time>2011-08-15T09:45:15Z</time>
      </trkpt>
      <trkpt lat="48.38163" lon="-4.50901">
        <ele>60.661</ele>
        <time>2011-08-15T09:45:17Z</time>
      </trkpt>
      <trkpt lat="48.38219" lon="-4.50868">
        <ele>61.342</ele>
        <time>2011-08-15T09:45:27Z</time>
      </trkpt>
      <trkpt lat="48.38236" lon="-4.50866">
        <ele>60.133</ele>
        <time>2011-08-15T09:45:30Z</time>
      </trkpt>
      <trkpt lat="48.38272" lon="-4.50862">
        <ele>59.812</ele>
        <time>2011-08-15T09:45:36Z</time>
      </trkpt>
      <trkpt lat="48.38292" lon="-4.5086">
        <ele>58.784</ele>
        <time>2011-08-15T09:45:40Z</time>
      </trkpt>
      <trkpt lat="48.38285" lon="-4.50785">
        <ele>54.328</ele>
        <time>2011-08-15T09:45:45Z</time>
      </trkpt>
      <trkpt lat="48.38285" lon="-4.50773">
        <ele>54.218</ele>
        <time>2011-08-15T09:45:46Z</time>
      </trkpt>
      <trkpt lat="48.38282" lon="-4.50738">
        <ele>51.865</ele>
        <time>2011-08-15T09:45:49Z</time>
      </trkpt>
      <trkpt lat="48.38278" lon="-4.50702">
        <ele>50.074</ele>
        <time>2011-08-15T09:45:52Z</time>
      </trkpt>
      <trkpt lat="48.38274" lon="-4.50664">
        <ele>48.77</ele>
        <time>2011-08-15T09:45:56Z</time>
      </trkpt>
      <trkpt lat="48.3827" lon="-4.5063">
        <ele>49.016</ele>
        <time>2011-08-15T09:46:07Z</time>
      </trkpt>
    </trkseg>
  </trk>
  <trk>
    <name><![CDATA[ACTIVE LOG115426]]></name>
    <trkseg>
      <trkpt lat="48.38267" lon="-4.50629">
        <ele>94.772</ele>
        <time>2011-08-15T09:54:26Z</time>
      </trkpt>
    </trkseg>
  </trk>
</gpx>